WA4BPS Weather Reports


time (UTC)temp
C
wind
direction
speed
KPH
gust
KPH
rain 1hr
cm
rain 24hr
cm
rain mn
cm
humidity
%
barometer
mb
20260509100833 13 256 11.3 22.5 0.00 0.00 0.00 89 1007.2
20260509100731 13 277 9.7 22.5 0.00 0.00 0.00 89 1007.2
20260509100631 13 285 11.3 22.5 0.00 0.00 0.00 89 1007.2
20260509100532 13 322 9.7 22.5 0.00 0.00 0.00 89 1007.2
20260509100451 13 282 11.3 22.5 0.00 0.00 0.00 89 1007.2
20260509100329 13 301 11.3 22.5 0.00 0.00 0.00 89 1007.2
20260509100243 13 305 11.3 22.5 0.00 0.00 0.00 89 1007.2
20260509100152 13 329 8.0 22.5 0.00 0.00 0.00 89 1007.2
20260509100029 13 282 6.4 20.9 0.00 0.00 0.00 89 1007.2
20260509095928 13 333 12.9 20.9 0.00 0.00 0.00 89 1007.2
20260509095827 13 332 11.3 19.3 0.00 0.00 0.00 89 1007.5
20260509095745 13 322 11.3 19.3 0.00 0.00 0.00 89 1007.5
20260509095621 13 337 4.8 19.3 0.00 0.00 0.00 89 1007.5
20260509095543 13 243 9.7 19.3 0.00 0.00 0.00 89 1007.5
20260509095503 13 316 12.9 19.3 0.00 0.00 0.00 89 1007.5
20260509095337 13 330 11.3 19.3 0.00 0.00 0.00 89 1007.5
20260509095220 13 332 9.7 22.5 0.00 0.00 0.00 89 1007.5
20260509095143 13 326 11.3 22.5 0.00 0.00 0.00 89 1007.5
20260509095041 13 330 9.7 22.5 0.00 0.00 0.00 89 1007.5
20260509094940 13 319 8.0 25.7 0.00 0.00 0.00 89 1007.5
20260509094858 13 287 8.0 25.7 0.00 0.00 0.00 89 1007.5
20260509094756 13 325 8.0 25.7 0.00 0.00 0.00 89 1007.5
20260509094725 13 316 9.7 25.7 0.00 0.00 0.00 89 1007.5
20260509094526 13 313 9.7 25.7 0.00 0.00 0.00 88 1007.5
20260509094425 13 328 16.1 25.7 0.00 0.00 0.00 88 1007.5
20260509094324 13 312 14.5 25.7 0.00 0.00 0.00 88 1007.4
20260509094242 13 320 12.9 25.7 0.00 0.00 0.00 88 1007.4
20260509094140 13 305 16.1 25.7 0.00 0.00 0.00 88 1007.4
20260509094039 13 296 9.7 22.5 0.00 0.00 0.00 88 1007.4
20260509093937 13 326 6.4 22.5 0.00 0.00 0.00 88 1007.4
20260509093855 13 271 4.8 22.5 0.00 0.00 0.00 88 1007.4
20260509093736 13 302 8.0 22.5 0.00 0.00 0.00 88 1007.4
20260509093636 13 280 11.3 22.5 0.00 0.00 0.00 88 1007.4
20260509093535 13 294 11.3 25.7 0.00 0.00 0.00 88 1007.4
20260509093433 13 329 12.9 29.0 0.00 0.00 0.00 88 1007.4
20260509093331 13 326 8.0 30.6 0.00 0.00 0.00 88 1007.4
20260509093300 13 316 9.7 30.6 0.00 0.00 0.00 88 1007.4
20260509093152 13 251 9.7 30.6 0.00 0.00 0.00 88 1007.4
20260509093028 13 325 12.9 30.6 0.00 0.00 0.00 87 1007.4
20260509092932 13 275 14.5 30.6 0.00 0.00 0.00 87 1007.4
20260509092850 13 285 17.7 30.6 0.00 0.00 0.00 87 1007.4
20260509092727 13 313 14.5 30.6 0.00 0.00 0.00 87 1007.4
20260509092646 14 264 12.9 30.6 0.00 0.00 0.00 87 1007.4
20260509092543 14 272 19.3 30.6 0.00 0.00 0.00 87 1007.4
20260509092441 14 294 19.3 29.0 0.00 0.00 0.00 87 1007.4
20260509092339 14 291 17.7 27.4 0.00 0.00 0.00 87 1007.4
20260509092237 14 330 14.5 32.2 0.00 0.00 0.00 87 1007.4
20260509092139 14 254 14.5 32.2 0.00 0.00 0.00 87 1007.4
20260509092039 14 302 14.5 32.2 0.00 0.00 0.00 87 1007.4
20260509091938 14 312 14.5 32.2 0.00 0.00 0.00 87 1007.4
20260509091856 14 329 24.1 32.2 0.00 0.00 0.00 86 1007.4
20260509091744 14 291 17.7 32.2 0.00 0.00 0.00 86 1007.4
20260509091651 14 257 12.9 32.2 0.00 0.00 0.00 86 1007.4
20260509091529 14 323 14.5 32.2 0.00 0.00 0.00 86 1007.4
20260509091447 14 287 25.7 32.2 0.00 0.00 0.00 86 1007.4
20260509091329 14 288 16.1 30.6 0.00 0.00 0.00 86 1007.6
20260509091227 14 308 20.9 30.6 0.00 0.00 0.00 86 1007.6
20260509091146 14 312 14.5 30.6 0.00 0.00 0.00 86 1007.6
20260509091043 14 301 20.9 30.6 0.00 0.00 0.00 86 1007.6
20260509091002 14 291 19.3 30.6 0.00 0.00 0.00 86 1007.6
20260509090838 14 318 14.5 30.6 0.00 0.00 0.00 85 1007.6
20260509090739 14 332 14.5 30.6 0.00 0.00 0.00 85 1007.6
20260509090637 14 330 12.9 30.6 0.00 0.00 0.00 85 1007.6
20260509090556 14 280 16.1 30.6 0.00 0.00 0.00 85 1007.6
20260509090438 14 316 16.1 30.6 0.00 0.00 0.00 85 1007.6
20260509090336 14 325 14.5 30.6 0.00 0.00 0.00 85 1007.6
20260509090255 14 332 19.3 30.6 0.00 0.00 0.00 85 1007.6
20260509090223 14 232 17.7 30.6 0.00 0.00 0.00 85 1007.6
20260509090059 14 332 19.3 32.2 0.00 0.00 0.00 85 1007.6
20260509085938 14 337 17.7 33.8 0.00 0.00 0.00 85 1007.6
20260509085838 14 319 17.7 33.8 0.00 0.00 0.00 84 1007.7
20260509085736 14 328 20.9 33.8 0.00 0.00 0.00 84 1007.7
20260509085637 14 330 12.9 33.8 0.00 0.00 0.00 84 1007.7
20260509085557 14 299 12.9 33.8 0.00 0.00 0.00 84 1007.7
20260509085454 14 318 14.5 33.8 0.00 0.00 0.00 84 1007.7
20260509085334 14 282 14.5 33.8 0.00 0.00 0.00 84 1007.7
20260509085232 14 325 17.7 33.8 0.00 0.00 0.00 84 1007.7
20260509085130 14 312 19.3 33.8 0.00 0.00 0.00 84 1007.7
20260509085048 14 298 17.7 38.6 0.00 0.00 0.00 84 1007.7
20260509084925 14 264 14.5 38.6 0.00 0.00 0.00 84 1007.7
20260509084828 14 328 19.3 38.6 0.00 0.00 0.00 84 1007.7
20260509084748 14 312 20.9 38.6 0.00 0.00 0.00 83 1007.7
20260509084658 14 316 19.3 38.6 0.00 0.00 0.00 83 1007.7
20260509084536 14 329 24.1 38.6 0.00 0.00 0.00 83 1007.7
20260509084454 14 311 20.9 38.6 0.00 0.00 0.00 83 1007.7
20260509084351 14 329 19.3 38.6 0.00 0.00 0.00 83 1008.1
20260509084229 14 319 19.3 38.6 0.00 0.00 0.00 83 1008.1
20260509084127 14 306 14.5 32.2 0.00 0.00 0.00 83 1008.1
20260509084025 14 328 17.7 32.2 0.00 0.00 0.00 83 1008.1
20260509083928 14 312 16.1 32.2 0.00 0.00 0.00 83 1008.1
20260509083846 14 329 16.1 32.2 0.00 0.00 0.00 83 1008.1
20260509083745 14 320 17.7 32.2 0.00 0.00 0.00 83 1008.1
20260509083703 14 299 17.7 32.2 0.00 0.00 0.00 83 1008.1
20260509083600 14 267 16.1 29.0 0.00 0.00 0.00 83 1008.1
20260509083438 14 330 14.5 29.0 0.00 0.00 0.00 83 1008.1
20260509083357 14 330 12.9 29.0 0.00 0.00 0.00 83 1008.1
20260509083234 14 299 11.3 29.0 0.00 0.00 0.00 83 1008.1
20260509083204 14 333 14.5 29.0 0.00 0.00 0.00 83 1008.1
20260509083026 14 329 12.9 30.6 0.00 0.00 0.00 83 1008.1
20260509082925 14 329 11.3 30.6 0.00 0.00 0.00 83 1008.1
20260509082823 14 325 16.1 32.2 0.00 0.00 0.00 83 1008.0
20260509082742 14 332 16.1 32.2 0.00 0.00 0.00 83 1008.0
20260509082640 14 306 12.9 32.2 0.00 0.00 0.00 83 1008.0
20260509082540 14 299 16.1 32.2 0.00 0.00 0.00 83 1008.0
20260509082459 14 335 20.9 32.2 0.00 0.00 0.00 83 1008.0
20260509082356 14 298 22.5 32.2 0.00 0.00 0.00 83 1008.0
20260509082237 14 264 22.5 32.2 0.00 0.00 0.00 83 1008.0
20260509082136 14 319 22.5 32.2 0.00 0.00 0.00 83 1008.0
20260509082053 14 315 20.9 32.2 0.00 0.00 0.00 83 1008.0
20260509081931 14 294 17.7 29.0 0.00 0.00 0.00 83 1008.0
20260509081830 14 296 14.5 29.0 0.00 0.00 0.00 83 1008.0
20260509081729 14 209 16.1 29.0 0.00 0.00 0.00 83 1008.0
20260509081658 14 295 17.7 29.0 0.00 0.00 0.00 83 1008.0
20260509081543 14 250 14.5 29.0 0.00 0.00 0.00 82 1008.0
20260509081441 14 330 12.9 29.0 0.00 0.00 0.00 82 1008.0
20260509081339 14 332 16.1 29.0 0.00 0.00 0.00 82 1008.2
20260509081237 14 332 17.7 29.0 0.00 0.00 0.00 82 1008.2
20260509081136 14 311 16.1 29.0 0.00 0.00 0.00 82 1008.2
20260509081033 14 332 14.5 29.0 0.00 0.00 0.00 82 1008.2
20260509080931 14 258 16.1 29.0 0.00 0.00 0.00 82 1008.2
20260509080828 14 312 8.0 29.0 0.00 0.00 0.00 82 1008.2
20260509080730 14 320 12.9 29.0 0.00 0.00 0.00 82 1008.2
20260509080628 14 326 19.3 29.0 0.00 0.00 0.00 82 1008.2
20260509080546 14 295 19.3 29.0 0.00 0.00 0.00 82 1008.2
20260509080504 14 320 16.1 29.0 0.00 0.00 0.00 82 1008.2
20260509080340 14 311 16.1 29.0 0.00 0.00 0.00 82 1008.2
20260509080240 14 328 11.3 29.0 0.00 0.00 0.00 82 1008.2
20260509080212 14 268 9.7 29.0 0.00 0.00 0.00 82 1008.2
20260509080027 14 320 11.3 30.6 0.00 0.00 0.00 82 1008.2
20260509075929 14 332 14.5 30.6 0.00 0.00 0.00 82 1008.2
20260509075828 14 299 14.5 30.6 0.00 0.00 0.00 82 1007.8
20260509075746 14 320 16.1 30.6 0.00 0.00 0.00 82 1007.8
20260509075705 14 312 14.5 30.6 0.00 0.00 0.00 82 1007.8
20260509075603 14 320 16.1 30.6 0.00 0.00 0.00 82 1007.8
20260509075441 14 322 16.1 35.4 0.00 0.00 0.00 82 1007.8
20260509075400 14 333 12.9 35.4 0.00 0.00 0.00 82 1007.8
20260509075236 14 282 8.0 35.4 0.00 0.00 0.00 81 1007.8
20260509075139 14 319 16.1 35.4 0.00 0.00 0.00 81 1007.8
20260509075039 14 302 16.1 35.4 0.00 0.00 0.00 81 1007.8
20260509074938 14 274 16.1 35.4 0.00 0.00 0.00 81 1007.8
20260509074838 14 322 14.5 35.4 0.00 0.00 0.00 81 1007.8
20260509074736 14 333 19.3 35.4 0.00 0.00 0.00 81 1007.8
20260509074705 14 340 19.3 35.4 0.00 0.00 0.00 81 1007.8
20260509074543 14 322 24.1 35.4 0.00 0.00 0.00 81 1007.8
20260509074445 14 332 17.7 33.8 0.00 0.00 0.00 81 1007.8
20260509074343 14 311 16.1 33.8 0.00 0.00 0.00 81 1007.9
20260509074301 14 322 16.1 33.8 0.00 0.00 0.00 81 1007.9
20260509074140 14 292 17.7 33.8 0.00 0.00 0.00 81 1007.9
20260509074039 14 330 17.7 33.8 0.00 0.00 0.00 81 1007.9
20260509073937 14 296 17.7 33.8 0.00 0.00 0.00 81 1007.9
20260509073835 14 326 14.5 33.8 0.00 0.00 0.00 81 1007.9
20260509073733 14 320 12.9 33.8 0.00 0.00 0.00 81 1007.9
20260509073636 14 330 19.3 33.8 0.00 0.00 0.00 81 1007.9
20260509073533 14 328 19.3 30.6 0.00 0.00 0.00 81 1007.9
20260509073452 14 332 16.1 30.6 0.00 0.00 0.00 81 1007.9
20260509073411 14 295 11.3 30.6 0.00 0.00 0.00 81 1007.9
20260509073310 14 332 17.7 30.6 0.00 0.00 0.00 81 1007.9
20260509073159 14 284 17.7 30.6 0.00 0.00 0.00 81 1007.9
20260509073035 14 320 14.5 30.6 0.00 0.00 0.00 81 1007.9
20260509072935 14 295 14.5 30.6 0.00 0.00 0.00 81 1007.9
20260509072837 14 295 16.1 30.6 0.00 0.00 0.00 81 1007.7
20260509072738 14 318 19.3 30.6 0.00 0.00 0.00 81 1007.7
20260509072635 14 253 16.1 27.4 0.00 0.00 0.00 81 1007.7
20260509072534 14 277 19.3 27.4 0.00 0.00 0.00 81 1007.7
20260509072433 14 261 14.5 27.4 0.00 0.00 0.00 81 1007.7
20260509072332 14 330 11.3 27.4 0.00 0.00 0.00 81 1007.7
20260509072250 14 332 17.7 27.4 0.00 0.00 0.00 81 1007.7
20260509072127 14 301 12.9 27.4 0.00 0.00 0.00 81 1007.7
20260509072029 14 253 16.1 27.4 0.00 0.00 0.00 81 1007.7
20260509071928 14 284 11.3 27.4 0.00 0.00 0.00 81 1007.7
20260509071826 14 274 14.5 27.4 0.00 0.00 0.00 81 1007.7
20260509071736 14 332 12.9 27.4 0.00 0.00 0.00 81 1007.7
20260509071646 14 319 11.3 27.4 0.00 0.00 0.00 81 1007.7
20260509071525 14 325 12.9 27.4 0.00 0.00 0.00 81 1007.7
20260509071443 14 258 12.9 27.4 0.00 0.00 0.00 81 1007.7
20260509071326 14 325 16.1 27.4 0.00 0.00 0.00 81 1008.2
20260509071243 14 309 12.9 27.4 0.00 0.00 0.00 81 1008.2
20260509071140 14 295 12.9 27.4 0.00 0.00 0.00 81 1008.2
20260509071038 14 309 14.5 27.4 0.00 0.00 0.00 81 1008.2
20260509070936 14 302 16.1 25.7 0.00 0.00 0.00 81 1008.2
20260509070833 14 301 14.5 25.7 0.00 0.00 0.00 81 1008.2
20260509070731 14 318 14.5 29.0 0.00 0.00 0.00 81 1008.2
20260509070630 13 332 8.0 29.0 0.00 0.00 0.00 81 1008.2
20260509070532 13 301 14.5 29.0 0.00 0.00 0.00 81 1008.2
20260509070431 13 330 6.4 30.6 0.00 0.00 0.00 81 1008.2
20260509070330 13 329 6.4 30.6 0.00 0.00 0.00 81 1008.2
20260509070229 13 328 11.3 30.6 0.00 0.00 0.00 81 1008.2
20260509070159 13 312 12.9 30.6 0.00 0.00 0.00 81 1008.2
20260509070037 13 328 12.9 30.6 0.00 0.00 0.00 81 1008.2
20260509065936 13 332 17.7 30.6 0.00 0.00 0.00 81 1008.2
20260509065838 13 328 11.3 30.6 0.00 0.00 0.00 81 1008.0
20260509065737 13 337 14.5 30.6 0.00 0.00 0.00 81 1008.0
20260509065635 13 329 11.3 30.6 0.00 0.00 0.00 81 1008.0
20260509065535 13 320 12.9 30.6 0.00 0.00 0.00 81 1008.0
20260509065434 13 306 14.5 24.1 0.00 0.00 0.00 81 1008.0
20260509065352 13 316 12.9 24.1 0.00 0.00 0.00 81 1008.0
20260509065251 13 277 16.1 24.1 0.00 0.00 0.00 81 1008.0
20260509065136 13 299 11.3 24.1 0.00 0.00 0.00 81 1008.0
20260509065035 13 313 12.9 24.1 0.00 0.00 0.00 81 1008.0
20260509064934 13 268 12.9 24.1 0.00 0.00 0.00 81 1008.0
20260509064832 13 309 9.7 22.5 0.00 0.00 0.00 81 1008.0
20260509064730 13 295 12.9 22.5 0.00 0.00 0.00 81 1008.0
20260509064700 13 304 11.3 24.1 0.00 0.00 0.00 81 1008.0
20260509064536 13 270 8.0 24.1 0.00 0.00 0.00 81 1008.0
20260509064434 13 282 14.5 24.1 0.00 0.00 0.00 81 1008.0
20260509064337 13 256 9.7 24.1 0.00 0.00 0.00 81 1007.9
20260509064236 13 261 11.3 25.7 0.00 0.00 0.00 81 1007.9
20260509064135 13 332 11.3 25.7 0.00 0.00 0.00 81 1007.9
20260509064034 13 335 14.5 25.7 0.00 0.00 0.00 81 1007.9
20260509063952 13 278 11.3 25.7 0.00 0.00 0.00 81 1007.9
20260509063830 13 323 12.9 25.7 0.00 0.00 0.00 81 1007.9
20260509063728 13 332 12.9 25.7 0.00 0.00 0.00 80 1007.9
20260509063632 13 277 14.5 27.4 0.00 0.00 0.00 80 1007.9
20260509063530 13 281 11.3 27.4 0.00 0.00 0.00 80 1007.9
20260509063432 13 326 14.5 27.4 0.00 0.00 0.00 80 1007.9
20260509063330 13 332 11.3 27.4 0.00 0.00 0.00 80 1007.9
20260509063229 13 326 9.7 27.4 0.00 0.00 0.00 80 1007.9
20260509063200 13 330 9.7 27.4 0.00 0.00 0.00 80 1007.9
20260509063037 13 291 12.9 27.4 0.00 0.00 0.00 80 1007.9
20260509062938 13 325 9.7 27.4 0.00 0.00 0.00 80 1007.9
20260509062857 13 265 17.7 27.4 0.00 0.00 0.00 80 1007.9
20260509062755 13 336 16.1 27.4 0.00 0.00 0.00 80 1007.9
20260509062633 13 330 12.9 22.5 0.00 0.00 0.00 80 1007.9
20260509062534 13 326 9.7 22.5 0.00 0.00 0.00 80 1007.9
20260509062432 13 332 12.9 22.5 0.00 0.00 0.00 80 1007.9
20260509062331 13 292 11.3 22.5 0.00 0.00 0.00 80 1007.9
20260509062250 13 312 11.3 22.5 0.00 0.00 0.00 80 1007.9
20260509062131 13 332 12.9 25.7 0.00 0.00 0.00 80 1007.9
20260509062029 13 298 16.1 25.7 0.00 0.00 0.00 80 1007.9
20260509061927 13 332 12.9 25.7 0.00 0.00 0.00 80 1007.9
20260509061826 13 315 11.3 25.7 0.00 0.00 0.00 80 1007.9
20260509061736 13 330 11.3 25.7 0.00 0.00 0.00 80 1007.9
20260509061646 13 322 11.3 25.7 0.00 0.00 0.00 80 1007.9
20260509061524 13 330 9.7 25.7 0.00 0.00 0.00 80 1007.9
20260509061425 13 311 9.7 25.7 0.00 0.00 0.00 80 1007.9
20260509061327 13 299 14.5 25.7 0.00 0.00 0.00 79 1008.1
20260509061245 13 325 12.9 25.7 0.00 0.00 0.00 79 1008.1
20260509061143 13 309 9.7 22.5 0.00 0.00 0.00 79 1008.1
20260509061041 13 265 12.9 22.5 0.00 0.00 0.00 79 1008.1
20260509060939 13 330 11.3 22.5 0.00 0.00 0.00 79 1008.1
20260509060838 13 319 14.5 22.5 0.00 0.00 0.00 79 1008.1
20260509060740 13 330 16.1 22.5 0.00 0.00 0.00 79 1008.1
20260509060638 13 288 11.3 22.5 0.00 0.00 0.00 79 1008.1
20260509060535 13 330 12.9 22.5 0.00 0.00 0.00 78 1008.1
20260509060435 13 312 9.7 20.9 0.00 0.00 0.00 78 1008.1
20260509060353 13 305 11.3 20.9 0.00 0.00 0.00 78 1008.1
20260509060230 13 288 12.9 20.9 0.00 0.00 0.00 78 1008.1
20260509060204 13 329 11.3 20.9 0.00 0.00 0.00 78 1008.1
20260509060024 13 329 12.9 19.3 0.00 0.00 0.00 78 1008.1
20260509055942 13 333 11.3 19.3 0.00 0.00 0.00 78 1008.1
20260509055840 13 330 12.9 19.3 0.00 0.00 0.00 78 1008.0
20260509055739 13 320 11.3 19.3 0.00 0.00 0.00 78 1008.0
20260509055637 13 296 9.7 19.3 0.00 0.00 0.00 78 1008.0
20260509055535 13 332 12.9 20.9 0.00 0.00 0.00 78 1008.0
20260509055434 13 296 9.7 27.4 0.00 0.00 0.00 77 1008.0
20260509055337 13 256 9.7 27.4 0.00 0.00 0.00 77 1008.0
20260509055236 13 322 12.9 27.4 0.00 0.00 0.00 77 1008.0
20260509055154 13 299 11.3 27.4 0.00 0.00 0.00 77 1008.0
20260509055031 13 263 9.7 27.4 0.00 0.00 0.00 77 1008.0
20260509054951 13 329 9.7 27.4 0.00 0.00 0.00 77 1008.0
20260509054829 13 208 9.7 27.4 0.00 0.00 0.00 77 1008.0
20260509054728 13 258 14.5 27.4 0.00 0.00 0.00 77 1008.0
20260509054657 13 325 14.5 27.4 0.00 0.00 0.00 77 1008.0
20260509054540 13 316 11.3 27.4 0.00 0.00 0.00 77 1008.0
20260509054438 13 318 12.9 27.4 0.00 0.00 0.00 77 1008.0
20260509054336 13 332 14.5 27.4 0.00 0.00 0.00 77 1008.4
20260509054233 13 258 11.3 27.4 0.00 0.00 0.00 77 1008.4
20260509054132 13 325 12.9 27.4 0.00 0.00 0.00 77 1008.4
20260509054031 13 278 16.1 27.4 0.00 0.00 0.00 77 1008.4
20260509053929 13 323 12.9 27.4 0.00 0.00 0.00 77 1008.4
20260509053847 13 251 14.5 27.4 0.00 0.00 0.00 77 1008.4
20260509053729 13 323 12.9 27.4 0.00 0.00 0.00 76 1008.4
20260509053628 13 247 12.9 27.4 0.00 0.00 0.00 76 1008.4
20260509053530 13 280 11.3 27.4 0.00 0.00 0.00 76 1008.4
20260509053428 13 301 12.9 27.4 0.00 0.00 0.00 76 1008.4
20260509053329 13 328 11.3 27.4 0.00 0.00 0.00 76 1008.4
20260509053238 13 323 9.7 24.1 0.00 0.00 0.00 76 1008.4
20260509053149 13 304 6.4 24.1 0.00 0.00 0.00 76 1008.4
20260509053028 13 309 11.3 24.1 0.00 0.00 0.00 76 1008.4
20260509052927 13 330 11.3 24.1 0.00 0.00 0.00 76 1008.4
20260509052825 13 284 11.3 24.1 0.00 0.00 0.00 76 1008.6
20260509052745 13 322 11.3 24.1 0.00 0.00 0.00 76 1008.6
20260509052702 13 319 11.3 24.1 0.00 0.00 0.00 76 1008.6
20260509052540 13 258 11.3 24.1 0.00 0.00 0.00 76 1008.6
20260509052438 13 312 12.9 24.1 0.00 0.00 0.00 76 1008.6
20260509052337 13 295 14.5 24.1 0.00 0.00 0.00 76 1008.6
20260509052238 13 326 11.3 22.5 0.00 0.00 0.00 76 1008.6
20260509052136 13 311 9.7 22.5 0.00 0.00 0.00 76 1008.6
20260509052055 13 315 14.5 22.5 0.00 0.00 0.00 76 1008.6
20260509051932 13 318 14.5 22.5 0.00 0.00 0.00 76 1008.6
20260509051831 13 311 11.3 25.7 0.00 0.00 0.00 76 1008.6
20260509051730 13 335 9.7 25.7 0.00 0.00 0.00 76 1008.6
20260509051658 13 336 12.9 25.7 0.00 0.00 0.00 76 1008.6
20260509051536 13 332 14.5 25.7 0.00 0.00 0.00 76 1008.6
20260509051438 13 311 12.9 27.4 0.00 0.00 0.00 76 1008.6
20260509051337 13 325 9.7 27.4 0.00 0.00 0.00 76 1008.6
20260509051235 13 322 8.0 27.4 0.00 0.00 0.00 76 1008.6
20260509051134 13 246 9.7 27.4 0.00 0.00 0.00 76 1008.6
20260509051032 13 312 14.5 27.4 0.00 0.00 0.00 76 1008.6
20260509050930 13 330 11.3 27.4 0.00 0.00 0.00 76 1008.6
20260509050832 13 329 8.0 27.4 0.00 0.00 0.00 76 1008.6
20260509050731 13 295 11.3 27.4 0.00 0.00 0.00 76 1008.6
20260509050629 13 325 12.9 27.4 0.00 0.00 0.00 76 1008.6
20260509050528 13 313 12.9 24.1 0.00 0.00 0.00 76 1008.6
20260509050427 13 330 14.5 24.1 0.00 0.00 0.00 76 1008.6
20260509050326 13 330 16.1 24.1 0.00 0.00 0.00 76 1008.6
20260509050237 13 326 11.3 24.1 0.00 0.00 0.00 76 1008.6
20260509050149 13 315 12.9 24.1 0.00 0.00 0.00 76 1008.6
20260509050046 13 301 11.3 24.1 0.00 0.00 0.00 76 1008.6
20260509050004 13 308 11.3 29.0 0.00 0.00 0.00 76 1008.6
20260509045841 13 309 17.7 29.0 0.00 0.00 0.00 76 1009.0
20260509045740 13 319 12.9 29.0 0.00 0.00 0.00 76 1009.0
20260509045639 13 305 12.9 29.0 0.00 0.00 0.00 76 1009.0
20260509045536 13 296 14.5 29.0 0.00 0.00 0.00 76 1009.0
20260509045436 13 326 17.7 29.0 0.00 0.00 0.00 76 1009.0
20260509045338 13 315 16.1 29.0 0.00 0.00 0.00 76 1009.0
20260509045236 13 339 14.5 25.7 0.00 0.00 0.00 77 1009.0
20260509045135 13 277 17.7 25.7 0.00 0.00 0.00 77 1009.0
20260509045034 13 247 12.9 24.1 0.00 0.00 0.00 77 1009.0
20260509044953 13 333 12.9 24.1 0.00 0.00 0.00 77 1009.0
20260509044830 13 326 12.9 24.1 0.00 0.00 0.00 77 1009.0
20260509044800 13 328 11.3 24.1 0.00 0.00 0.00 76 1009.0
20260509044649 13 323 12.9 24.1 0.00 0.00 0.00 76 1009.0
20260509044547 13 335 11.3 24.1 0.00 0.00 0.00 76 1009.0
20260509044449 13 308 14.5 22.5 0.00 0.00 0.00 77 1009.0
20260509044348 13 326 11.3 22.5 0.00 0.00 0.00 77 1009.0
20260509044306 13 318 9.7 25.7 0.00 0.00 0.00 76 1009.0
20260509044204 13 296 12.9 27.4 0.00 0.00 0.00 76 1009.0
20260509044041 13 318 11.3 27.4 0.00 0.00 0.00 76 1009.0
20260509043940 13 304 12.9 27.4 0.00 0.00 0.00 76 1009.0
20260509043840 13 305 14.5 27.4 0.00 0.00 0.00 76 1009.0
20260509043739 13 299 12.9 27.4 0.00 0.00 0.00 76 1009.0
20260509043641 13 306 11.3 27.4 0.00 0.00 0.00 76 1009.0
20260509043540 13 304 11.3 27.4 0.00 0.00 0.00 76 1009.0
20260509043458 13 296 12.9 27.4 0.00 0.00 0.00 76 1009.0
20260509043336 13 294 17.7 27.4 0.00 0.00 0.00 76 1009.0
20260509043234 13 313 14.5 25.7 0.00 0.00 0.00 76 1009.0
20260509043203 13 323 11.3 22.5 0.00 0.00 0.00 76 1009.0
20260509043040 13 318 12.9 22.5 0.00 0.00 0.00 76 1009.0
20260509042938 13 308 12.9 22.5 0.00 0.00 0.00 76 1009.0
20260509042841 13 329 12.9 22.5 0.00 0.00 0.00 76 1009.1
20260509042739 13 206 11.3 22.5 0.00 0.00 0.00 76 1009.1
20260509042635 13 330 8.0 22.5 0.00 0.00 0.00 76 1009.1
20260509042533 13 313 11.3 22.5 0.00 0.00 0.00 76 1009.1
20260509042454 13 333 11.3 22.5 0.00 0.00 0.00 76 1009.1
20260509042351 13 305 9.7 22.5 0.00 0.00 0.00 76 1009.1
20260509042231 13 294 11.3 22.5 0.00 0.00 0.00 76 1009.1
20260509042130 13 330 11.3 22.5 0.00 0.00 0.00 76 1009.1
20260509042031 13 281 11.3 20.9 0.00 0.00 0.00 76 1009.1
20260509041950 13 294 11.3 20.9 0.00 0.00 0.00 76 1009.1
20260509041827 13 323 14.5 20.9 0.00 0.00 0.00 76 1009.1
20260509041736 13 308 9.7 20.9 0.00 0.00 0.00 76 1009.1
20260509041645 13 304 11.3 20.9 0.00 0.00 0.00 76 1009.1
20260509041542 13 336 11.3 20.9 0.00 0.00 0.00 76 1009.1
20260509041441 13 320 11.3 19.3 0.00 0.00 0.00 76 1009.1
20260509041401 13 313 9.7 25.7 0.00 0.00 0.00 76 1009.3
20260509041238 13 313 9.7 25.7 0.00 0.00 0.00 76 1009.3
20260509041141 13 323 9.7 25.7 0.00 0.00 0.00 76 1009.3
20260509041040 13 318 9.7 25.7 0.00 0.00 0.00 76 1009.3
20260509040938 13 319 9.7 25.7 0.00 0.00 0.00 76 1009.3
20260509040837 13 332 9.7 25.7 0.00 0.00 0.00 76 1009.3
20260509040733 13 323 11.3 25.7 0.00 0.00 0.00 75 1009.3
20260509040632 13 316 11.3 25.7 0.00 0.00 0.00 75 1009.3
20260509040551 13 329 9.7 25.7 0.00 0.00 0.00 75 1009.3
20260509040433 13 301 9.7 20.9 0.00 0.00 0.00 75 1009.3
20260509040352 13 274 8.0 20.9 0.00 0.00 0.00 75 1009.3
20260509040239 13 285 6.4 20.9 0.00 0.00 0.00 75 1009.3
20260509040149 13 326 11.3 20.9 0.00 0.00 0.00 75 1009.3
20260509040025 13 295 9.7 20.9 0.00 0.00 0.00 75 1009.3
20260509035943 13 330 11.3 20.9 0.00 0.00 0.00 75 1009.3
20260509035842 13 332 9.7 20.9 0.00 0.00 0.00 75 1009.4
20260509035740 13 319 9.7 17.7 0.00 0.00 0.00 75 1009.4
20260509035643 13 332 9.7 17.7 0.00 0.00 0.00 75 1009.4
20260509035541 13 267 11.3 17.7 0.00 0.00 0.00 75 1009.4
20260509035440 13 312 9.7 17.7 0.00 0.00 0.00 75 1009.4
20260509035358 14 329 11.3 17.7 0.00 0.00 0.00 75 1009.4
20260509035236 14 328 9.7 17.7 0.00 0.00 0.00 75 1009.4
20260509035154 14 332 11.3 17.7 0.00 0.00 0.00 75 1009.4
20260509035051 14 333 8.0 17.7 0.00 0.00 0.00 75 1009.4
20260509034929 14 332 9.7 17.7 0.00 0.00 0.00 75 1009.4
20260509034831 14 320 9.7 17.7 0.00 0.00 0.00 75 1009.4
20260509034749 14 332 11.3 17.7 0.00 0.00 0.00 75 1009.4
20260509034657 14 330 9.7 17.7 0.00 0.00 0.00 75 1009.4
20260509034534 14 332 11.3 17.7 0.00 0.00 0.00 74 1009.4
20260509034433 14 332 12.9 17.7 0.00 0.00 0.00 75 1009.4
20260509034331 14 329 9.7 17.7 0.00 0.00 0.00 74 1009.5
20260509034231 14 333 9.7 17.7 0.00 0.00 0.00 74 1009.5
20260509034129 14 332 9.7 17.7 0.00 0.00 0.00 74 1009.5
20260509034033 14 328 9.7 17.7 0.00 0.00 0.00 74 1009.5
20260509033933 14 332 8.0 17.7 0.00 0.00 0.00 74 1009.5
20260509033852 14 330 9.7 17.7 0.00 0.00 0.00 74 1009.5
20260509033729 14 332 12.9 17.7 0.00 0.00 0.00 74 1009.5
20260509033626 14 328 11.3 17.7 0.00 0.00 0.00 74 1009.5
20260509033544 14 319 11.3 17.7 0.00 0.00 0.00 74 1009.5
20260509033503 14 329 9.7 17.7 0.00 0.00 0.00 74 1009.5
20260509033340 14 332 8.0 20.9 0.00 0.00 0.00 74 1009.5
20260509033233 14 304 9.7 20.9 0.00 0.00 0.00 74 1009.5
20260509033145 14 332 11.3 20.9 0.00 0.00 0.00 74 1009.5
20260509033045 14 320 9.7 20.9 0.00 0.00 0.00 74 1009.5
20260509032943 14 322 11.3 20.9 0.00 0.00 0.00 74 1009.5
20260509032842 14 312 8.0 20.9 0.00 0.00 0.00 74 1009.8
20260509032801 14 333 8.0 20.9 0.00 0.00 0.00 74 1009.8
20260509032639 14 330 12.9 20.9 0.00 0.00 0.00 74 1009.8
20260509032558 14 323 12.9 20.9 0.00 0.00 0.00 74 1009.8
20260509032437 14 333 14.5 20.9 0.00 0.00 0.00 74 1009.8
20260509032359 14 311 9.7 20.9 0.00 0.00 0.00 74 1009.8
20260509032236 14 296 9.7 20.9 0.00 0.00 0.00 74 1009.8
20260509032135 14 333 11.3 20.9 0.00 0.00 0.00 74 1009.8
20260509032034 14 316 9.7 20.9 0.00 0.00 0.00 74 1009.8
20260509031933 14 319 12.9 20.9 0.00 0.00 0.00 74 1009.8
20260509031851 14 330 12.9 20.9 0.00 0.00 0.00 74 1009.8
20260509031735 14 258 9.7 20.9 0.00 0.00 0.00 74 1009.8
20260509031647 14 332 11.3 20.9 0.00 0.00 0.00 74 1009.8
20260509031529 14 330 11.3 20.9 0.00 0.00 0.00 74 1009.8
20260509031427 14 325 11.3 20.9 0.00 0.00 0.00 74 1009.8
20260509031346 14 332 9.7 20.9 0.00 0.00 0.00 74 1009.9
20260509031244 14 257 9.7 19.3 0.00 0.00 0.00 74 1009.9
20260509031143 14 332 12.9 19.3 0.00 0.00 0.00 73 1009.9
20260509031038 14 311 11.3 19.3 0.00 0.00 0.00 73 1009.9
20260509030936 14 284 11.3 22.5 0.00 0.00 0.00 73 1009.9
20260509030834 14 330 9.7 22.5 0.00 0.00 0.00 73 1009.9
20260509030754 14 332 11.3 22.5 0.00 0.00 0.00 73 1009.9
20260509030634 14 326 11.3 22.5 0.00 0.00 0.00 73 1009.9
20260509030534 14 315 11.3 22.5 0.00 0.00 0.00 73 1009.9
20260509030432 14 308 11.3 22.5 0.00 0.00 0.00 73 1009.9
20260509030330 14 320 9.7 22.5 0.00 0.00 0.00 73 1009.9
20260509030243 14 308 9.7 22.5 0.00 0.00 0.00 73 1009.9
20260509030154 14 304 12.9 22.5 0.00 0.00 0.00 73 1009.9
20260509030030 14 326 11.3 22.5 0.00 0.00 0.00 73 1009.9
20260509025952 14 315 11.3 20.9 0.00 0.00 0.00 73 1009.9
20260509025830 14 332 11.3 20.9 0.00 0.00 0.00 73 1009.8
20260509025728 14 332 12.9 20.9 0.00 0.00 0.00 72 1009.8
20260509025627 14 325 9.7 20.9 0.00 0.00 0.00 72 1009.8
20260509025524 14 329 11.3 20.9 0.00 0.00 0.00 72 1009.8
20260509025442 14 295 9.7 20.9 0.00 0.00 0.00 72 1009.8
20260509025341 14 243 9.7 20.9 0.00 0.00 0.00 72 1009.8
20260509025243 14 330 12.9 20.9 0.00 0.00 0.00 72 1009.8
20260509025143 14 329 9.7 20.9 0.00 0.00 0.00 72 1009.8
20260509025041 14 332 9.7 20.9 0.00 0.00 0.00 72 1009.8
20260509024939 14 326 12.9 20.9 0.00 0.00 0.00 72 1009.8
20260509024858 14 333 11.3 20.9 0.00 0.00 0.00 72 1009.8
20260509024735 14 298 8.0 20.9 0.00 0.00 0.00 72 1009.8
20260509024703 15 319 11.3 20.9 0.00 0.00 0.00 72 1009.8
20260509024524 15 328 11.3 20.9 0.00 0.00 0.00 72 1009.8
20260509024443 15 329 9.7 20.9 0.00 0.00 0.00 72 1009.8
20260509024341 15 332 11.3 20.9 0.00 0.00 0.00 72 1009.9
20260509024241 15 284 11.3 20.9 0.00 0.00 0.00 72 1009.9
20260509024140 15 304 8.0 17.7 0.00 0.00 0.00 72 1009.9
20260509024038 15 250 9.7 17.7 0.00 0.00 0.00 72 1009.9
20260509023936 15 329 9.7 20.9 0.00 0.00 0.00 72 1009.9
20260509023838 15 274 8.0 20.9 0.00 0.00 0.00 72 1009.9
20260509023737 15 325 9.7 20.9 0.00 0.00 0.00 72 1009.9
20260509023635 15 246 8.0 20.9 0.00 0.00 0.00 72 1009.9
20260509023534 15 326 9.7 20.9 0.00 0.00 0.00 72 1009.9
20260509023432 15 325 12.9 20.9 0.00 0.00 0.00 72 1009.9
20260509023332 15 330 8.0 20.9 0.00 0.00 0.00 72 1009.9
20260509023231 15 330 4.8 20.9 0.00 0.00 0.00 72 1009.9
20260509023203 15 282 11.3 20.9 0.00 0.00 0.00 72 1009.9
20260509023104 15 328 12.9 20.9 0.00 0.00 0.00 72 1009.9
20260509022941 15 288 11.3 20.9 0.00 0.00 0.00 72 1009.9
20260509022840 15 332 12.9 25.7 0.00 0.00 0.00 72 1009.9
20260509022738 15 301 12.9 25.7 0.00 0.00 0.00 72 1009.9
20260509022636 15 244 12.9 25.7 0.00 0.00 0.00 72 1009.9
20260509022535 15 332 14.5 25.7 0.00 0.00 0.00 71 1009.9
20260509022453 15 328 11.3 25.7 0.00 0.00 0.00 71 1009.9
20260509022334 15 326 6.4 25.7 0.00 0.00 0.00 71 1009.9
20260509022252 15 319 11.3 25.7 0.00 0.00 0.00 71 1009.9
20260509022150 15 332 14.5 25.7 0.00 0.00 0.00 71 1009.9
20260509022028 15 330 17.7 25.7 0.00 0.00 0.00 71 1009.9
20260509021927 15 299 9.7 25.7 0.00 0.00 0.00 71 1009.9
20260509021825 15 333 11.3 25.7 0.00 0.00 0.00 71 1009.9
20260509021724 15 309 14.5 25.7 0.00 0.00 0.00 71 1009.9
20260509021653 15 311 19.3 25.7 0.00 0.00 0.00 71 1009.9
20260509021550 15 265 14.5 20.9 0.00 0.00 0.00 71 1009.9
20260509021432 15 288 14.5 20.9 0.00 0.00 0.00 71 1009.9
20260509021329 15 301 12.9 19.3 0.00 0.00 0.00 71 1009.0
20260509021227 15 332 12.9 17.7 0.00 0.00 0.00 71 1009.0
20260509021125 15 315 12.9 17.7 0.00 0.00 0.00 71 1009.0
20260509021044 15 332 11.3 17.7 0.00 0.00 0.00 71 1009.0
20260509020942 15 326 11.3 17.7 0.00 0.00 0.00 71 1009.0
20260509020840 15 220 9.7 17.7 0.00 0.00 0.00 70 1009.0
20260509020738 15 241 11.3 17.7 0.00 0.00 0.00 70 1009.0
20260509020640 15 328 11.3 19.3 0.00 0.00 0.00 70 1009.0
20260509020539 15 330 11.3 19.3 0.00 0.00 0.00 70 1009.0
20260509020438 15 313 9.7 19.3 0.00 0.00 0.00 70 1009.0
20260509020357 15 272 8.0 19.3 0.00 0.00 0.00 70 1009.0
20260509020254 15 318 9.7 19.3 0.00 0.00 0.00 70 1009.0
20260509020225 15 319 11.3 19.3 0.00 0.00 0.00 70 1009.0
20260509020039 15 326 12.9 19.3 0.00 0.00 0.00 69 1009.0
20260509015937 15 301 9.7 19.3 0.00 0.00 0.00 69 1009.0
20260509015856 15 315 11.3 19.3 0.00 0.00 0.00 69 1009.1
20260509015758 15 305 11.3 19.3 0.00 0.00 0.00 69 1009.1
20260509015635 15 319 8.0 16.1 0.00 0.00 0.00 69 1009.1
20260509015535 15 325 9.7 16.1 0.00 0.00 0.00 69 1009.1
20260509015433 15 330 9.7 17.7 0.00 0.00 0.00 69 1009.1
20260509015331 15 329 9.7 17.7 0.00 0.00 0.00 69 1009.1
20260509015229 15 280 9.7 17.7 0.00 0.00 0.00 69 1009.1
20260509015128 15 326 8.0 17.7 0.00 0.00 0.00 69 1009.1
20260509015032 15 319 8.0 17.7 0.00 0.00 0.00 69 1009.1
20260509014951 15 282 8.0 17.7 0.00 0.00 0.00 68 1009.1
20260509014848 15 306 9.7 20.9 0.00 0.00 0.00 68 1009.1
20260509014746 15 304 8.0 20.9 0.00 0.00 0.00 68 1009.1
20260509014716 15 309 11.3 20.9 0.00 0.00 0.00 68 1009.1
20260509014553 15 329 9.7 20.9 0.00 0.00 0.00 68 1009.1
20260509014450 15 272 11.3 20.9 0.00 0.00 0.00 68 1009.1
20260509014327 15 330 11.3 20.9 0.00 0.00 0.00 68 1009.8
20260509014247 15 285 11.3 20.9 0.00 0.00 0.00 68 1009.8
20260509014124 15 328 9.7 20.9 0.00 0.00 0.00 68 1009.8
20260509014027 15 272 9.7 20.9 0.00 0.00 0.00 68 1009.8
20260509013945 15 332 11.3 20.9 0.00 0.00 0.00 68 1009.8
20260509013842 15 318 14.5 20.9 0.00 0.00 0.00 68 1009.8
20260509013801 15 251 11.3 20.9 0.00 0.00 0.00 68 1009.8
20260509013658 15 332 6.4 20.9 0.00 0.00 0.00 68 1009.8
20260509013536 15 299 11.3 22.5 0.00 0.00 0.00 68 1009.8
20260509013435 16 291 8.0 22.5 0.00 0.00 0.00 68 1009.8
20260509013334 16 318 6.4 22.5 0.00 0.00 0.00 68 1009.8
20260509013233 16 313 6.4 22.5 0.00 0.00 0.00 68 1009.8
20260509013206 16 278 6.4 22.5 0.00 0.00 0.00 68 1009.8
20260509013103 16 295 9.7 22.5 0.00 0.00 0.00 68 1009.8
20260509013000 16 329 11.3 22.5 0.00 0.00 0.00 67 1009.8
20260509012837 16 332 11.3 22.5 0.00 0.00 0.00 67 1009.8
20260509012735 16 309 14.5 22.5 0.00 0.00 0.00 67 1009.8
20260509012634 16 315 12.9 22.5 0.00 0.00 0.00 67 1009.8
20260509012533 16 227 9.7 20.9 0.00 0.00 0.00 67 1009.8
20260509012430 16 312 14.5 20.9 0.00 0.00 0.00 67 1009.8
20260509012332 16 271 11.3 20.9 0.00 0.00 0.00 67 1009.8
20260509012230 16 336 9.7 20.9 0.00 0.00 0.00 67 1009.8
20260509012128 16 306 11.3 20.9 0.00 0.00 0.00 67 1009.8
20260509012027 16 332 12.9 20.9 0.00 0.00 0.00 67 1009.8
20260509011927 16 330 12.9 20.9 0.00 0.00 0.00 67 1009.8
20260509011825 16 330 16.1 20.9 0.00 0.00 0.00 67 1009.8
20260509011729 16 298 12.9 20.9 0.00 0.00 0.00 67 1009.8
20260509011658 16 308 12.9 20.9 0.00 0.00 0.00 67 1009.8
20260509011538 16 326 6.4 20.9 0.00 0.00 0.00 67 1009.8
20260509011436 16 248 11.3 20.9 0.00 0.00 0.00 67 1009.8
20260509011335 16 312 9.7 20.9 0.00 0.00 0.00 67 1008.9
20260509011233 16 332 9.7 20.9 0.00 0.00 0.00 67 1008.9
20260509011132 16 264 9.7 20.9 0.00 0.00 0.00 67 1008.9
20260509011037 16 294 8.0 20.9 0.00 0.00 0.00 67 1008.9
20260509010936 16 325 6.4 20.9 0.00 0.00 0.00 67 1008.9
20260509010834 16 302 11.3 20.9 0.00 0.00 0.00 67 1008.9
20260509010733 16 312 11.3 20.9 0.00 0.00 0.00 67 1008.9
20260509010633 16 301 9.7 19.3 0.00 0.00 0.00 67 1008.9
20260509010531 16 329 8.0 19.3 0.00 0.00 0.00 67 1008.9
20260509010449 16 322 8.0 19.3 0.00 0.00 0.00 67 1008.9
20260509010325 16 294 11.3 19.3 0.00 0.00 0.00 67 1008.9
20260509010239 16 330 6.4 19.3 0.00 0.00 0.00 67 1008.9
20260509010149 16 322 9.7 19.3 0.00 0.00 0.00 67 1008.9
20260509010025 16 330 12.9 19.3 0.00 0.00 0.00 67 1008.9
20260509005943 16 330 11.3 19.3 0.00 0.00 0.00 67 1008.9
20260509005842 16 309 9.7 19.3 0.00 0.00 0.00 67 1009.0
20260509005739 16 329 6.4 19.3 0.00 0.00 0.00 67 1009.0
20260509005638 16 325 6.4 19.3 0.00 0.00 0.00 67 1009.0
20260509005558 16 323 8.0 19.3 0.00 0.00 0.00 66 1009.0
20260509005440 16 274 8.0 19.3 0.00 0.00 0.00 66 1009.0
20260509005338 16 320 6.4 19.3 0.00 0.00 0.00 66 1009.0
20260509005236 16 326 9.7 19.3 0.00 0.00 0.00 66 1009.0
20260509005135 16 319 4.8 17.7 0.00 0.00 0.00 66 1009.0
20260509005033 16 332 6.4 17.7 0.00 0.00 0.00 66 1009.0
20260509004932 16 330 9.7 17.7 0.00 0.00 0.00 66 1009.0
20260509004835 16 326 3.2 17.7 0.00 0.00 0.00 66 1009.0
20260509004745 16 322 8.0 14.5 0.00 0.00 0.00 66 1009.0
20260509004653 16 332 8.0 14.5 0.00 0.00 0.00 66 1009.0
20260509004531 16 296 6.4 14.5 0.00 0.00 0.00 66 1009.0
20260509004430 16 326 6.4 14.5 0.00 0.00 0.00 65 1009.0
20260509004329 17 320 4.8 17.7 0.00 0.00 0.00 65 1008.9
20260509004227 17 268 8.0 19.3 0.00 0.00 0.00 65 1008.9
20260509004125 17 280 8.0 19.3 0.00 0.00 0.00 65 1008.9
20260509004048 17 284 4.8 19.3 0.00 0.00 0.00 65 1008.9
20260509003925 17 305 6.4 19.3 0.00 0.00 0.00 65 1008.9
20260509003843 17 319 4.8 19.3 0.00 0.00 0.00 65 1008.9
20260509003742 17 319 1.6 19.3 0.00 0.00 0.00 65 1008.9
20260509003640 17 332 8.0 19.3 0.00 0.00 0.00 65 1008.9
20260509003559 17 328 11.3 19.3 0.00 0.00 0.00 65 1008.9
20260509003436 17 288 11.3 19.3 0.00 0.00 0.00 65 1008.9
20260509003337 17 285 9.7 19.3 0.00 0.00 0.00 65 1008.9
20260509003239 17 329 1.6 17.7 0.00 0.00 0.00 65 1008.9
20260509003209 17 280 6.4 17.7 0.00 0.00 0.00 65 1008.9
20260509003106 17 304 9.7 22.5 0.00 0.00 0.00 64 1008.9
20260509003004 17 325 6.4 22.5 0.00 0.00 0.00 64 1008.9
20260509002843 17 311 8.0 22.5 0.00 0.00 0.00 64 1010.0
20260509002741 17 309 6.4 22.5 0.00 0.00 0.00 64 1010.0
20260509002639 17 322 8.0 22.5 0.00 0.00 0.00 64 1010.0
20260509002558 17 326 8.0 22.5 0.00 0.00 0.00 64 1010.0
20260509002440 17 320 4.8 22.5 0.00 0.00 0.00 64 1010.0
20260509002339 17 260 6.4 22.5 0.00 0.00 0.00 64 1010.0
20260509002238 17 277 9.7 22.5 0.00 0.00 0.00 64 1010.0
20260509002136 17 328 11.3 22.5 0.00 0.00 0.00 64 1010.0
20260509002034 17 332 8.0 19.3 0.00 0.00 0.00 64 1010.0
20260509001934 17 332 9.7 19.3 0.00 0.00 0.00 64 1010.0
20260509001832 17 253 3.2 19.3 0.00 0.00 0.00 63 1010.0
20260509001735 17 329 6.4 22.5 0.00 0.00 0.00 63 1010.0
20260509001705 17 332 6.4 22.5 0.00 0.00 0.00 63 1010.0
20260509001542 17 322 9.7 22.5 0.00 0.00 0.00 63 1010.0
20260509001440 17 330 8.0 22.5 0.00 0.00 0.00 63 1010.0
20260509001338 17 284 11.3 22.5 0.00 0.00 0.00 62 1009.2
20260509001236 17 313 11.3 22.5 0.00 0.00 0.00 62 1009.2
20260509001135 17 330 6.4 22.5 0.00 0.00 0.00 62 1009.2
20260509001038 17 251 6.4 22.5 0.00 0.00 0.00 62 1009.2
20260509000935 17 330 9.7 22.5 0.00 0.00 0.00 62 1009.2
20260509000834 17 329 12.9 22.5 0.00 0.00 0.00 62 1009.2
20260509000732 17 325 9.7 19.3 0.00 0.00 0.00 61 1009.2
20260509000631 17 322 8.0 22.5 0.00 0.00 0.00 61 1009.2
20260509000529 17 325 11.3 22.5 0.00 0.00 0.00 61 1009.2
20260509000428 17 329 11.3 22.5 0.00 0.00 0.00 61 1009.2
20260509000333 17 287 8.0 22.5 0.00 0.00 0.00 61 1009.2
20260509000241 17 323 6.4 22.5 0.00 0.00 0.00 60 1009.2
20260509000149 17 328 6.4 22.5 0.00 0.00 0.00 60 1009.2
20260509000026 17 278 8.0 22.5 0.00 0.00 0.00 60 1009.2
20260508235924 17 312 8.0 22.5 0.00 0.00 0.00 60 1009.2
20260508235842 17 328 14.5 22.5 0.00 0.00 0.00 60 1009.0
20260508235740 17 236 9.7 17.7 0.00 0.00 0.00 60 1009.0
20260508235640 17 330 9.7 17.7 0.00 0.00 0.00 60 1009.0
20260508235603 17 313 11.3 17.7 0.00 0.00 0.00 60 1009.0
20260508235440 17 299 11.3 17.7 0.00 0.00 0.00 60 1009.0
20260508235357 18 330 9.7 17.7 0.00 0.00 0.00 60 1009.0
20260508235236 18 325 6.4 17.7 0.00 0.00 0.00 60 1009.0
20260508235135 18 332 9.7 17.7 0.00 0.00 0.00 59 1009.0
20260508235033 18 223 9.7 20.9 0.00 0.00 0.00 59 1009.0
20260508234955 18 330 11.3 22.5 0.00 0.00 0.00 59 1009.0
20260508234832 18 326 8.0 22.5 0.00 0.00 0.00 59 1009.0
20260508234758 18 329 11.3 22.5 0.00 0.00 0.00 59 1009.0
20260508234727 18 332 8.0 22.5 0.00 0.00 0.00 59 1009.0
20260508234604 18 298 8.0 22.5 0.00 0.00 0.00 59 1009.0
20260508234502 18 325 8.0 22.5 0.00 0.00 0.00 59 1009.0
20260508234340 18 309 6.4 22.5 0.00 0.00 0.00 59 1009.2
20260508234300 18 330 9.7 22.5 0.00 0.00 0.00 59 1009.2
20260508234137 18 285 11.3 22.5 0.00 0.00 0.00 58 1009.2
20260508234037 18 275 9.7 19.3 0.00 0.00 0.00 58 1009.2
20260508233936 18 320 11.3 19.3 0.00 0.00 0.00 59 1009.2
20260508233839 18 277 11.3 19.3 0.00 0.00 0.00 59 1009.2
20260508233737 18 330 8.0 17.7 0.00 0.00 0.00 59 1009.2
20260508233656 18 250 8.0 17.7 0.00 0.00 0.00 59 1009.2
20260508233553 18 304 9.7 17.7 0.00 0.00 0.00 59 1009.2
20260508233429 18 308 11.3 17.7 0.00 0.00 0.00 59 1009.2
20260508233328 18 302 9.7 16.1 0.00 0.00 0.00 59 1009.2
20260508233245 18 258 8.0 16.1 0.00 0.00 0.00 59 1009.2
20260508233215 18 277 8.0 16.1 0.00 0.00 0.00 59 1009.2
20260508233035 18 250 4.8 16.1 0.00 0.00 0.00 58 1009.2
20260508232934 18 308 4.8 16.1 0.00 0.00 0.00 58 1009.2
20260508232832 18 316 8.0 16.1 0.00 0.00 0.00 58 1009.1
20260508232730 18 299 8.0 16.1 0.00 0.00 0.00 59 1009.1
20260508232629 18 294 8.0 16.1 0.00 0.00 0.00 59 1009.1
20260508232526 18 291 8.0 16.1 0.00 0.00 0.00 59 1009.1
20260508232426 18 272 6.4 11.3 0.00 0.00 0.00 58 1009.1
20260508232328 18 256 8.0 11.3 0.00 0.00 0.00 58 1009.1
20260508232227 18 264 6.4 9.7 0.00 0.00 0.00 57 1009.1
20260508232126 18 232 3.2 11.3 0.00 0.00 0.00 57 1009.1
20260508232025 18 229 4.8 11.3 0.00 0.00 0.00 57 1009.1
20260508231943 18 234 3.2 12.9 0.00 0.00 0.00 57 1009.1
20260508231842 18 196 4.8 22.5 0.00 0.00 0.00 58 1009.1
20260508231735 18 260 3.2 22.5 0.00 0.00 0.00 58 1009.1
20260508231645 18 325 1.6 22.5 0.00 0.00 0.00 58 1009.1
20260508231542 18 247 4.8 22.5 0.00 0.00 0.00 58 1009.1
20260508231501 18 318 6.4 22.5 0.00 0.00 0.00 57 1009.1
20260508231337 18 227 8.0 22.5 0.00 0.00 0.00 57 1009.2
20260508231255 18 305 6.4 22.5 0.00 0.00 0.00 57 1009.2
20260508231132 18 289 3.2 22.5 0.00 0.00 0.00 57 1009.2
20260508231029 18 257 12.9 22.5 0.00 0.00 0.00 56 1009.2
20260508230928 18 296 3.2 20.9 0.00 0.00 0.00 56 1009.2
20260508230826 18 257 11.3 20.9 0.00 0.00 0.00 56 1009.2
20260508230729 18 219 14.5 20.9 0.00 0.00 0.00 56 1009.2
20260508230627 18 274 4.8 12.9 0.00 0.00 0.00 56 1009.2
20260508230543 18 268 4.8 12.9 0.00 0.00 0.00 56 1009.2
20260508230442 18 253 3.2 12.9 0.00 0.00 0.00 56 1009.2
20260508230340 18 198 4.8 12.9 0.00 0.00 0.00 56 1009.2
20260508230238 18 186 4.8 12.9 0.00 0.00 0.00 56 1009.2
20260508230207 18 223 3.2 12.9 0.00 0.00 0.00 56 1009.2
20260508230043 18 155 4.8 12.9 0.00 0.00 0.00 55 1009.2
20260508225925 18 192 4.8 12.9 0.00 0.00 0.00 55 1009.2
20260508225844 18 189 1.6 12.9 0.00 0.00 0.00 56 1009.4
20260508225803 18 213 1.6 12.9 0.00 0.00 0.00 56 1009.4
20260508225640 18 243 3.2 16.1 0.00 0.00 0.00 55 1009.4
20260508225538 18 189 6.4 16.1 0.00 0.00 0.00 55 1009.4
20260508225436 18 212 1.6 16.1 0.00 0.00 0.00 55 1009.4
20260508225334 18 240 3.2 16.1 0.00 0.00 0.00 55 1009.4
20260508225237 18 186 4.8 16.1 0.00 0.00 0.00 55 1009.4
20260508225135 18 172 8.0 16.1 0.00 0.00 0.00 55 1009.4
20260508225052 18 226 4.8 16.1 0.00 0.00 0.00 55 1009.4
20260508224949 18 224 6.4 16.1 0.00 0.00 0.00 55 1009.4
20260508224827 18 232 9.7 16.1 0.00 0.00 0.00 55 1009.4
20260508224726 18 206 3.2 16.1 0.00 0.00 0.00 54 1009.4
20260508224655 18 213 1.6 16.1 0.00 0.00 0.00 54 1009.4
20260508224533 18 196 1.6 16.1 0.00 0.00 0.00 53 1009.4
20260508224436 18 202 3.2 16.1 0.00 0.00 0.00 52 1009.4
20260508224335 18 223 6.4 16.1 0.00 0.00 0.00 53 1009.5
20260508224232 18 192 8.0 16.1 0.00 0.00 0.00 55 1009.5
20260508224151 18 198 12.9 16.1 0.00 0.00 0.00 54 1009.5
20260508224028 18 209 4.8 12.9 0.00 0.00 0.00 54 1009.5
20260508223945 18 195 1.6 12.9 0.00 0.00 0.00 54 1009.5
20260508223843 18 176 3.2 16.1 0.00 0.00 0.00 53 1009.5
20260508223741 18 305 4.8 16.1 0.00 0.00 0.00 54 1009.5
20260508223700 18 175 8.0 16.1 0.00 0.00 0.00 54 1009.5
20260508223541 18 244 6.4 16.1 0.00 0.00 0.00 53 1009.5
20260508223438 18 232 8.0 16.1 0.00 0.00 0.00 53 1009.5
20260508223337 18 186 6.4 16.1 0.00 0.00 0.00 53 1009.5
20260508223239 18 216 3.2 16.1 0.00 0.00 0.00 53 1009.5
20260508223149 18 171 6.4 16.1 0.00 0.00 0.00 53 1009.5
20260508223026 18 212 8.0 16.1 0.00 0.00 0.00 54 1009.5
20260508222944 18 196 8.0 16.1 0.00 0.00 0.00 55 1009.5
20260508222841 18 137 8.0 16.1 0.00 0.00 0.00 54 1010.3
20260508222804 18 202 6.4 16.1 0.00 0.00 0.00 54 1010.3
20260508222641 18 196 4.8 16.1 0.00 0.00 0.00 54 1010.3
20260508222539 18 186 6.4 16.1 0.00 0.00 0.00 53 1010.3
20260508222435 18 215 8.0 16.1 0.00 0.00 0.00 53 1010.3
20260508222334 18 254 8.0 16.1 0.00 0.00 0.00 52 1010.3
20260508222232 19 315 1.6 16.1 0.00 0.00 0.00 53 1010.3
20260508222150 19 278 4.8 16.1 0.00 0.00 0.00 54 1010.3
20260508222029 19 212 3.2 16.1 0.00 0.00 0.00 54 1010.3
20260508221932 19 248 6.4 16.1 0.00 0.00 0.00 54 1010.3
20260508221831 19 256 6.4 16.1 0.00 0.00 0.00 54 1010.3
20260508221739 19 237 6.4 16.1 0.00 0.00 0.00 54 1010.3
20260508221649 19 215 0.0 16.1 0.00 0.00 0.00 54 1010.3
20260508221547 19 184 0.0 16.1 0.00 0.00 0.00 53 1010.3
20260508221424 19 164 4.8 16.1 0.00 0.00 0.00 53 1010.3
20260508221342 19 198 6.4 16.1 0.00 0.00 0.00 53 1010.5
20260508221240 19 224 6.4 16.1 0.00 0.00 0.00 53 1010.5
20260508221142 19 222 4.8 16.1 0.00 0.00 0.00 54 1010.5
20260508221040 19 133 6.4 16.1 0.00 0.00 0.00 53 1010.5
20260508220938 19 248 1.6 16.1 0.00 0.00 0.00 51 1010.5
20260508220837 19 233 1.6 16.1 0.00 0.00 0.00 51 1010.5
20260508220755 19 234 6.4 16.1 0.00 0.00 0.00 52 1010.5
20260508220633 19 302 9.7 17.7 0.00 0.00 0.00 52 1010.5
20260508220530 19 247 8.0 17.7 0.00 0.00 0.00 52 1010.5
20260508220428 19 195 6.4 17.7 0.00 0.00 0.00 52 1010.5
20260508220331 19 193 8.0 17.7 0.00 0.00 0.00 52 1010.5
20260508220230 19 198 3.2 17.7 0.00 0.00 0.00 51 1010.5
20260508220200 19 191 6.4 17.7 0.00 0.00 0.00 51 1010.5
20260508220037 19 222 4.8 17.7 0.00 0.00 0.00 52 1010.5
20260508215936 19 265 1.6 17.7 0.00 0.00 0.00 52 1010.5
20260508215855 19 282 8.0 17.7 0.00 0.00 0.00 53 1010.5
20260508215733 19 243 4.8 11.3 0.00 0.00 0.00 52 1010.5
20260508215651 19 287 1.6 11.3 0.00 0.00 0.00 51 1010.5
20260508215532 19 323 6.4 11.3 0.00 0.00 0.00 52 1010.5
20260508215432 19 203 1.6 12.9 0.00 0.00 0.00 52 1010.5
20260508215351 19 311 3.2 12.9 0.00 0.00 0.00 51 1010.5
20260508215232 19 313 6.4 12.9 0.00 0.00 0.00 52 1010.5
20260508215129 19 260 3.2 12.9 0.00 0.00 0.00 52 1010.5
20260508215028 19 209 3.2 12.9 0.00 0.00 0.00 52 1010.5
20260508214926 19 237 4.8 12.9 0.00 0.00 0.00 51 1010.5
20260508214829 19 246 3.2 12.9 0.00 0.00 0.00 52 1010.5
20260508214743 19 230 4.8 12.9 0.00 0.00 0.00 52 1010.5
20260508214651 19 251 8.0 12.9 0.00 0.00 0.00 51 1010.5
20260508214528 19 193 6.4 12.9 0.00 0.00 0.00 50 1010.5
20260508214427 19 191 3.2 12.9 0.00 0.00 0.00 50 1010.5
20260508214325 19 134 3.2 12.9 0.00 0.00 0.00 51 1010.4
20260508214224 19 213 8.0 12.9 0.00 0.00 0.00 51 1010.4
20260508214126 19 134 8.0 12.9 0.00 0.00 0.00 51 1010.4
20260508214044 19 210 4.8 11.3 0.00 0.00 0.00 51 1010.4
20260508214003 19 209 4.8 11.3 0.00 0.00 0.00 51 1010.4
20260508213840 19 203 6.4 11.3 0.00 0.00 0.00 50 1010.4
20260508213758 19 229 4.8 11.3 0.00 0.00 0.00 50 1010.4
20260508213635 19 196 4.8 11.3 0.00 0.00 0.00 51 1010.4
20260508213534 19 202 4.8 12.9 0.00 0.00 0.00 50 1010.4
20260508213431 19 145 6.4 17.7 0.00 0.00 0.00 50 1010.4
20260508213334 19 188 8.0 17.7 0.00 0.00 0.00 51 1010.4
20260508213233 19 110 6.4 17.7 0.00 0.00 0.00 50 1010.4
20260508213205 19 230 1.6 17.7 0.00 0.00 0.00 50 1010.4
20260508213041 19 168 1.6 17.7 0.00 0.00 0.00 49 1010.4
20260508213000 19 223 3.2 17.7 0.00 0.00 0.00 51 1010.4
20260508212837 19 191 1.6 17.7 0.00 0.00 0.00 50 1010.6
20260508212736 19 319 4.8 17.7 0.00 0.00 0.00 50 1010.6
20260508212634 19 224 11.3 17.7 0.00 0.00 0.00 50 1010.6
20260508212541 19 184 9.7 17.7 0.00 0.00 0.00 50 1010.6
20260508212439 19 217 4.8 17.7 0.00 0.00 0.00 51 1010.6
20260508212338 19 268 6.4 17.7 0.00 0.00 0.00 51 1010.6
20260508212237 19 256 8.0 17.7 0.00 0.00 0.00 51 1010.6
20260508212135 19 230 4.8 17.7 0.00 0.00 0.00 51 1010.6
20260508212034 19 277 8.0 17.7 0.00 0.00 0.00 51 1010.6
20260508211937 19 277 4.8 17.7 0.00 0.00 0.00 50 1010.6
20260508211835 19 294 8.0 17.7 0.00 0.00 0.00 50 1010.6
20260508211734 19 191 11.3 17.7 0.00 0.00 0.00 51 1010.6
20260508211704 19 272 9.7 17.7 0.00 0.00 0.00 51 1010.6
20260508211542 19 267 4.8 12.9 0.00 0.00 0.00 51 1010.6
20260508211439 19 240 1.6 12.9 0.00 0.00 0.00 50 1010.6
20260508211337 19 220 1.6 12.9 0.00 0.00 0.00 49 1010.4
20260508211235 19 160 3.2 12.9 0.00 0.00 0.00 47 1010.4
20260508211137 19 179 3.2 17.7 0.00 0.00 0.00 48 1010.4
20260508211036 19 258 6.4 17.7 0.00 0.00 0.00 50 1010.4
20260508210934 19 275 9.7 17.7 0.00 0.00 0.00 50 1010.4
20260508210832 19 271 4.8 17.7 0.00 0.00 0.00 48 1010.4
20260508210730 19 216 3.2 17.7 0.00 0.00 0.00 47 1010.4
20260508210628 19 233 1.6 17.7 0.00 0.00 0.00 47 1010.4
20260508210546 19 256 6.4 17.7 0.00 0.00 0.00 47 1010.4
20260508210428 19 313 8.0 17.7 0.00 0.00 0.00 49 1010.4
20260508210326 19 232 11.3 17.7 0.00 0.00 0.00 49 1010.4
20260508210237 19 261 8.0 11.3 0.00 0.00 0.00 49 1010.4
20260508210146 19 263 3.2 11.3 0.00 0.00 0.00 48 1010.4
20260508210043 19 234 1.6 11.3 0.00 0.00 0.00 47 1010.4
20260508205941 19 236 1.6 14.5 0.00 0.00 0.00 47 1010.4
20260508205842 19 171 3.2 16.1 0.00 0.00 0.00 47 1009.6
20260508205800 19 189 3.2 16.1 0.00 0.00 0.00 48 1009.6
20260508205642 19 308 3.2 16.1 0.00 0.00 0.00 47 1009.6
20260508205540 18 247 3.2 16.1 0.00 0.00 0.00 46 1009.6
20260508205437 18 161 4.8 16.1 0.00 0.00 0.00 46 1009.6
20260508205336 18 254 6.4 16.1 0.00 0.00 0.00 47 1009.6
20260508205234 18 203 6.4 16.1 0.00 0.00 0.00 47 1009.6
20260508205152 18 223 9.7 16.1 0.00 0.00 0.00 47 1009.6
20260508205029 18 138 9.7 16.1 0.00 0.00 0.00 47 1009.6
20260508204932 18 272 3.2 12.9 0.00 0.00 0.00 47 1009.6
20260508204831 18 213 6.4 12.9 0.00 0.00 0.00 47 1009.6
20260508204740 18 260 8.0 14.5 0.00 0.00 0.00 46 1009.6
20260508204650 18 304 4.8 22.5 0.00 0.00 0.00 45 1009.6
20260508204528 18 285 3.2 22.5 0.00 0.00 0.00 46 1009.6
20260508204448 18 270 9.7 22.5 0.00 0.00 0.00 46 1009.6
20260508204346 18 169 4.8 22.5 0.00 0.00 0.00 47 1010.1
20260508204243 18 325 3.2 22.5 0.00 0.00 0.00 47 1010.1
20260508204141 18 251 3.2 22.5 0.00 0.00 0.00 48 1010.1
20260508204105 18 240 4.8 22.5 0.00 0.00 0.00 49 1010.1
20260508204005 18 288 8.0 22.5 0.00 0.00 0.00 48 1010.1
20260508203842 18 267 11.3 22.5 0.00 0.00 0.00 48 1010.1
20260508203741 18 270 4.8 16.1 0.00 0.00 0.00 48 1010.1
20260508203640 18 253 9.7 16.1 0.00 0.00 0.00 50 1010.1
20260508203535 18 215 6.4 17.7 0.00 0.00 0.00 48 1010.1
20260508203435 18 236 4.8 17.7 0.00 0.00 0.00 48 1010.1
20260508203332 18 230 6.4 17.7 0.00 0.00 0.00 46 1010.1
20260508203255 18 193 1.6 17.7 0.00 0.00 0.00 45 1010.1
20260508203226 18 168 1.6 17.7 0.00 0.00 0.00 47 1010.1
20260508203102 18 143 4.8 17.7 0.00 0.00 0.00 50 1010.1
20260508203001 18 299 4.8 17.7 0.00 0.00 0.00 49 1010.1
20260508202841 18 195 6.4 17.7 0.00 0.00 0.00 49 1010.4
20260508202739 18 244 8.0 17.7 0.00 0.00 0.00 50 1010.4
20260508202637 18 236 8.0 17.7 0.00 0.00 0.00 48 1010.4
20260508202536 18 126 6.4 17.7 0.00 0.00 0.00 48 1010.4
20260508202439 18 240 6.4 17.7 0.00 0.00 0.00 47 1010.4
20260508202336 18 141 6.4 17.7 0.00 0.00 0.00 48 1010.4
20260508202235 18 216 3.2 17.7 0.00 0.00 0.00 51 1010.4
20260508202133 18 292 8.0 17.7 0.00 0.00 0.00 51 1010.4
20260508202030 18 263 6.4 17.7 0.00 0.00 0.00 51 1010.4
20260508201929 18 212 8.0 17.7 0.00 0.00 0.00 51 1010.4
20260508201829 18 182 11.3 17.7 0.00 0.00 0.00 51 1010.4
20260508201739 18 301 6.4 16.1 0.00 0.00 0.00 51 1010.4
20260508201653 18 294 4.8 16.1 0.00 0.00 0.00 52 1010.4
20260508201530 18 271 9.7 16.1 0.00 0.00 0.00 51 1010.4
20260508201449 18 277 6.4 16.1 0.00 0.00 0.00 51 1010.4
20260508201327 18 247 8.0 16.1 0.00 0.00 0.00 50 1010.2
20260508201244 18 161 4.8 12.9 0.00 0.00 0.00 52 1010.2
20260508201203 18 157 1.6 11.3 0.00 0.00 0.00 53 1010.2
20260508201041 18 176 3.2 11.3 0.00 0.00 0.00 53 1010.2
20260508200939 18 133 6.4 11.3 0.00 0.00 0.00 53 1010.2
20260508200844 18 154 4.8 11.3 0.00 0.00 0.00 50 1010.2
20260508200722 18 257 3.2 9.7 0.00 0.00 0.00 49 1010.2
20260508200624 18 161 1.6 9.7 0.00 0.00 0.00 50 1010.2
20260508200542 18 237 3.2 9.7 0.00 0.00 0.00 50 1010.2
20260508200441 18 291 6.4 9.7 0.00 0.00 0.00 48 1010.2
20260508200339 18 301 6.4 9.7 0.00 0.00 0.00 47 1010.2
20260508200222 18 141 6.4 9.7 0.00 0.00 0.00 47 1010.2
20260508200157 18 150 6.4 9.7 0.00 0.00 0.00 47 1010.2
20260508200057 18 128 3.2 8.0 0.00 0.00 0.00 46 1010.2
20260508195937 18 123 0.0 9.7 0.00 0.00 0.00 49 1010.2
20260508195855 18 138 1.6 9.7 0.00 0.00 0.00 50 1010.0
20260508195732 18 128 1.6 9.7 0.00 0.00 0.00 50 1010.0
20260508195631 18 219 0.0 16.1 0.00 0.00 0.00 49 1010.0
20260508195550 18 178 0.0 16.1 0.00 0.00 0.00 49 1010.0
20260508195429 18 203 0.0 16.1 0.00 0.00 0.00 48 1010.0
20260508195332 18 165 3.2 16.1 0.00 0.00 0.00 49 1010.0
20260508195231 18 195 1.6 16.1 0.00 0.00 0.00 50 1010.0
20260508195130 18 184 4.8 16.1 0.00 0.00 0.00 50 1010.0
20260508195047 18 209 3.2 16.1 0.00 0.00 0.00 49 1010.0
20260508194924 18 100 3.2 16.1 0.00 0.00 0.00 49 1010.0
20260508194843 18 90 8.0 16.1 0.00 0.00 0.00 48 1010.0
20260508194733 18 227 1.6 14.5 0.00 0.00 0.00 46 1010.0
20260508194647 18 154 4.8 14.5 0.00 0.00 0.00 46 1010.0
20260508194525 18 168 1.6 14.5 0.00 0.00 0.00 47 1010.0
20260508194444 18 263 1.6 14.5 0.00 0.00 0.00 47 1010.0
20260508194341 18 185 6.4 14.5 0.00 0.00 0.00 48 1010.3
20260508194240 18 172 3.2 14.5 0.00 0.00 0.00 47 1010.3
20260508194138 18 189 9.7 14.5 0.00 0.00 0.00 50 1010.3
20260508194036 18 213 8.0 14.5 0.00 0.00 0.00 50 1010.3
20260508193938 18 162 3.2 12.9 0.00 0.00 0.00 51 1010.3
20260508193857 18 232 1.6 12.9 0.00 0.00 0.00 50 1010.3
20260508193734 18 270 3.2 12.9 0.00 0.00 0.00 49 1010.3
20260508193632 18 152 1.6 8.0 0.00 0.00 0.00 49 1010.3
20260508193532 18 120 0.0 8.0 0.00 0.00 0.00 49 1010.3
20260508193430 18 140 1.6 8.0 0.00 0.00 0.00 48 1010.3
20260508193328 18 110 3.2 8.0 0.00 0.00 0.00 47 1010.3
20260508193237 18 205 6.4 8.0 0.00 0.00 0.00 46 1010.3
20260508193150 18 136 3.2 8.0 0.00 0.00 0.00 47 1010.3
20260508193047 18 112 4.8 9.7 0.00 0.00 0.00 47 1010.3
20260508192925 18 162 0.0 9.7 0.00 0.00 0.00 46 1010.3
20260508192843 18 167 1.6 9.7 0.00 0.00 0.00 48 1010.7
20260508192742 18 117 0.0 9.7 0.00 0.00 0.00 46 1010.7
20260508192640 18 138 0.0 9.7 0.00 0.00 0.00 49 1010.7
20260508192538 18 137 0.0 9.7 0.00 0.00 0.00 48 1010.7
20260508192437 18 189 1.6 9.7 0.00 0.00 0.00 48 1010.7
20260508192340 18 175 1.6 12.9 0.00 0.00 0.00 49 1010.7
20260508192258 18 150 3.2 12.9 0.00 0.00 0.00 47 1010.7
20260508192137 18 128 6.4 12.9 0.00 0.00 0.00 49 1010.7
20260508192036 18 124 6.4 12.9 0.00 0.00 0.00 50 1010.7
20260508191933 18 136 3.2 12.9 0.00 0.00 0.00 47 1010.7
20260508191832 18 154 0.0 12.9 0.00 0.00 0.00 45 1010.7
20260508191731 18 141 3.2 12.9 0.00 0.00 0.00 48 1010.7
20260508191705 18 179 6.4 12.9 0.00 0.00 0.00 48 1010.7
20260508191540 18 134 8.0 12.9 0.00 0.00 0.00 48 1010.7
20260508191438 18 109 0.0 12.9 0.00 0.00 0.00 48 1010.7
20260508191357 18 133 6.4 12.9 0.00 0.00 0.00 49 1011.9
20260508191235 18 137 9.7 12.9 0.00 0.00 0.00 45 1011.9
20260508191134 18 215 9.7 11.3 0.00 0.00 0.00 45 1011.9
20260508191032 18 251 8.0 11.3 0.00 0.00 0.00 49 1011.9
20260508190932 18 210 8.0 11.3 0.00 0.00 0.00 48 1011.9
20260508190836 18 138 9.7 11.3 0.00 0.00 0.00 49 1011.9
20260508190734 18 130 6.4 11.3 0.00 0.00 0.00 46 1011.9
20260508190653 18 215 1.6 16.1 0.00 0.00 0.00 45 1011.9
20260508190532 18 168 3.2 16.1 0.00 0.00 0.00 44 1011.9
20260508190431 18 185 4.8 16.1 0.00 0.00 0.00 46 1011.9
20260508190331 18 172 1.6 16.1 0.00 0.00 0.00 47 1011.9
20260508190228 18 145 4.8 16.1 0.00 0.00 0.00 45 1011.9
20260508190200 18 205 4.8 16.1 0.00 0.00 0.00 45 1011.9
20260508190100 18 257 4.8 16.1 0.00 0.00 0.00 45 1011.9
20260508185937 18 217 4.8 16.1 0.00 0.00 0.00 45 1011.9
20260508185836 18 263 6.4 16.1 0.00 0.00 0.00 46 1011.8
20260508185735 18 95 6.4 14.5 0.00 0.00 0.00 48 1011.8
20260508185633 18 126 9.7 14.5 0.00 0.00 0.00 46 1011.8
20260508185531 18 199 9.7 14.5 0.00 0.00 0.00 48 1011.8
20260508185429 18 200 4.8 9.7 0.00 0.00 0.00 46 1011.8
20260508185332 18 195 4.8 9.7 0.00 0.00 0.00 47 1011.8
20260508185230 18 212 1.6 9.7 0.00 0.00 0.00 48 1011.8
20260508185128 18 247 4.8 9.7 0.00 0.00 0.00 48 1011.8
20260508185027 18 186 3.2 9.7 0.00 0.00 0.00 48 1011.8
20260508184928 18 158 3.2 9.7 0.00 0.00 0.00 48 1011.8
20260508184828 18 172 3.2 9.7 0.00 0.00 0.00 47 1011.8
20260508184742 18 160 0.0 9.7 0.00 0.00 0.00 46 1011.8
20260508184649 18 240 3.2 9.7 0.00 0.00 0.00 46 1011.8
20260508184527 18 154 1.6 9.7 0.00 0.00 0.00 44 1011.8
20260508184446 18 179 3.2 9.7 0.00 0.00 0.00 43 1011.8
20260508184342 18 219 3.2 11.3 0.00 0.00 0.00 46 1011.9
20260508184241 18 140 3.2 11.3 0.00 0.00 0.00 48 1011.9
20260508184140 18 278 3.2 11.3 0.00 0.00 0.00 46 1011.9
20260508184038 18 133 0.0 11.3 0.00 0.00 0.00 46 1011.9
20260508183956 18 158 0.0 12.9 0.00 0.00 0.00 45 1011.9
20260508183837 18 124 3.2 12.9 0.00 0.00 0.00 45 1011.9
20260508183735 18 161 1.6 12.9 0.00 0.00 0.00 46 1011.9
20260508183634 18 202 0.0 12.9 0.00 0.00 0.00 47 1011.9
20260508183533 18 162 4.8 12.9 0.00 0.00 0.00 47 1011.9
20260508183430 18 243 9.7 12.9 0.00 0.00 0.00 48 1011.9
20260508183328 18 157 4.8 12.9 0.00 0.00 0.00 47 1011.9
20260508183257 18 202 1.6 12.9 0.00 0.00 0.00 46 1011.9
20260508183146 18 175 6.4 12.9 0.00 0.00 0.00 46 1011.9
20260508183047 18 278 8.0 12.9 0.00 0.00 0.00 46 1011.9
20260508183006 19 140 8.0 17.7 0.00 0.00 0.00 50 1011.9
20260508182904 19 189 11.3 17.7 0.00 0.00 0.00 50 1012.3
20260508182741 19 165 4.8 17.7 0.00 0.00 0.00 47 1012.3
20260508182638 19 260 3.2 17.7 0.00 0.00 0.00 49 1012.3
20260508182536 19 195 1.6 17.7 0.00 0.00 0.00 48 1012.3
20260508182435 19 251 4.8 17.7 0.00 0.00 0.00 48 1012.3
20260508182335 19 133 6.4 17.7 0.00 0.00 0.00 47 1012.3
20260508182237 19 280 8.0 17.7 0.00 0.00 0.00 48 1012.3
20260508182135 19 179 12.9 17.7 0.00 0.00 0.00 45 1012.3
20260508182033 19 246 9.7 12.9 0.00 0.00 0.00 45 1012.3
20260508181930 19 230 9.7 12.9 0.00 0.00 0.00 47 1012.3
20260508181829 19 137 4.8 12.9 0.00 0.00 0.00 47 1012.3
20260508181728 19 121 4.8 12.9 0.00 0.00 0.00 44 1012.3
20260508181658 19 165 6.4 12.9 0.00 0.00 0.00 44 1012.3
20260508181555 19 133 8.0 12.9 0.00 0.00 0.00 44 1012.3
20260508181437 19 176 6.4 12.9 0.00 0.00 0.00 44 1012.3
20260508181335 19 282 4.8 12.9 0.00 0.00 0.00 44 1012.5
20260508181234 19 199 4.8 12.9 0.00 0.00 0.00 45 1012.5
20260508181131 19 234 3.2 12.9 0.00 0.00 0.00 45 1012.5
20260508181030 19 174 6.4 12.9 0.00 0.00 0.00 45 1012.5
20260508180929 19 215 9.7 12.9 0.00 0.00 0.00 45 1012.5
20260508180828 20 236 9.7 12.9 0.00 0.00 0.00 45 1012.5
20260508180730 20 151 4.8 11.3 0.00 0.00 0.00 43 1012.5
20260508180629 20 258 4.8 11.3 0.00 0.00 0.00 44 1012.5
20260508180529 20 316 1.6 14.5 0.00 0.00 0.00 44 1012.5
20260508180428 20 110 0.0 16.1 0.00 0.00 0.00 44 1012.5
20260508180347 20 124 3.2 16.1 0.00 0.00 0.00 44 1012.5
20260508180235 20 217 1.6 16.1 0.00 0.00 0.00 36 1012.5
20260508180144 20 206 0.0 16.1 0.00 0.00 0.00 36 1012.5
20260508180025 20 104 6.4 16.1 0.00 0.00 0.00 36 1012.5
20260508175927 20 114 6.4 16.1 0.00 0.00 0.00 36 1012.5
20260508175846 20 116 8.0 16.1 0.00 0.00 0.00 39 1012.8
20260508175743 20 239 11.3 16.1 0.00 0.00 0.00 39 1012.8
20260508175642 20 123 8.0 16.1 0.00 0.00 0.00 42 1012.8
20260508175540 20 222 3.2 11.3 0.00 0.00 0.00 38 1012.8
20260508175438 20 234 4.8 11.3 0.00 0.00 0.00 38 1012.8
20260508175358 20 155 1.6 12.9 0.00 0.00 0.00 38 1012.8
20260508175255 20 219 3.2 12.9 0.00 0.00 0.00 40 1012.8
20260508175136 20 175 4.8 16.1 0.00 0.00 0.00 40 1012.8
20260508175035 20 318 6.4 17.7 0.00 0.00 0.00 40 1012.8
20260508174933 20 186 8.0 17.7 0.00 0.00 0.00 40 1012.8
20260508174832 20 215 3.2 17.7 0.00 0.00 0.00 40 1012.8
20260508174729 20 254 6.4 17.7 0.00 0.00 0.00 38 1012.8
20260508174657 20 206 8.0 17.7 0.00 0.00 0.00 38 1012.8
20260508174535 20 315 9.7 17.7 0.00 0.00 0.00 45 1012.8
20260508174438 20 205 9.7 17.7 0.00 0.00 0.00 45 1012.8
20260508174335 20 172 9.7 17.7 0.00 0.00 0.00 45 1013.0
20260508174234 20 223 11.3 17.7 0.00 0.00 0.00 45 1013.0
20260508174132 20 203 6.4 16.1 0.00 0.00 0.00 46 1013.0
20260508174031 20 229 4.8 16.1 0.00 0.00 0.00 45 1013.0
20260508173929 20 199 4.8 16.1 0.00 0.00 0.00 41 1013.0
20260508173827 20 178 8.0 16.1 0.00 0.00 0.00 40 1013.0
20260508173750 20 144 6.4 16.1 0.00 0.00 0.00 39 1013.0
20260508173627 20 157 4.8 16.1 0.00 0.00 0.00 42 1013.0
20260508173528 20 196 6.4 12.9 0.00 0.00 0.00 41 1013.0
20260508173426 20 326 0.0 12.9 0.00 0.00 0.00 39 1013.0
20260508173325 20 224 0.0 22.5 0.00 0.00 0.00 42 1013.0
20260508173224 20 291 4.8 22.5 0.00 0.00 0.00 45 1013.0
20260508173159 20 325 8.0 22.5 0.00 0.00 0.00 45 1013.0
20260508173055 20 311 8.0 22.5 0.00 0.00 0.00 43 1013.0
20260508172936 20 250 1.6 22.5 0.00 0.00 0.00 43 1013.0
20260508172855 20 263 3.2 22.5 0.00 0.00 0.00 42 1013.5
20260508172752 20 247 4.8 22.5 0.00 0.00 0.00 46 1013.5
20260508172712 20 222 4.8 22.5 0.00 0.00 0.00 46 1013.5
20260508172547 19 198 9.7 22.5 0.00 0.00 0.00 44 1013.5
20260508172505 19 306 9.7 22.5 0.00 0.00 0.00 44 1013.5
20260508172342 19 128 4.8 20.9 0.00 0.00 0.00 44 1013.5
20260508172240 19 62 6.4 20.9 0.00 0.00 0.00 41 1013.5
20260508172139 19 103 9.7 20.9 0.00 0.00 0.00 44 1013.5
20260508172057 19 191 1.6 12.9 0.00 0.00 0.00 44 1013.5
20260508171938 19 217 3.2 12.9 0.00 0.00 0.00 46 1013.5
20260508171836 19 248 4.8 12.9 0.00 0.00 0.00 44 1013.5
20260508171734 19 210 4.8 12.9 0.00 0.00 0.00 44 1013.5
20260508171704 19 213 1.6 19.3 0.00 0.00 0.00 44 1013.5
20260508171603 19 209 4.8 19.3 0.00 0.00 0.00 47 1013.5
20260508171439 19 278 4.8 19.3 0.00 0.00 0.00 46 1013.5
20260508171340 19 265 1.6 19.3 0.00 0.00 0.00 45 1013.9
20260508171238 19 268 6.4 19.3 0.00 0.00 0.00 48 1013.9
20260508171141 19 272 6.4 19.3 0.00 0.00 0.00 48 1013.9
20260508171100 18 256 6.4 19.3 0.00 0.00 0.00 48 1013.9
20260508170937 18 278 8.0 19.3 0.00 0.00 0.00 48 1013.9
20260508170836 18 258 6.4 19.3 0.00 0.00 0.00 47 1013.9
20260508170735 18 227 9.7 19.3 0.00 0.00 0.00 45 1013.9
20260508170632 18 209 1.6 17.7 0.00 0.00 0.00 46 1013.9
20260508170532 18 175 3.2 17.7 0.00 0.00 0.00 49 1013.9
20260508170450 18 185 1.6 17.7 0.00 0.00 0.00 48 1013.9
20260508170332 18 189 1.6 17.7 0.00 0.00 0.00 48 1013.9
20260508170241 18 169 3.2 17.7 0.00 0.00 0.00 46 1013.9
20260508170151 18 138 1.6 17.7 0.00 0.00 0.00 47 1013.9
20260508170048 18 147 6.4 17.7 0.00 0.00 0.00 47 1013.9
20260508165945 18 216 11.3 17.7 0.00 0.00 0.00 45 1013.9
20260508165904 18 97 9.7 17.7 0.00 0.00 0.00 44 1013.8
20260508165742 18 168 1.6 16.1 0.00 0.00 0.00 44 1013.8
20260508165641 18 182 1.6 16.1 0.00 0.00 0.00 48 1013.8
20260508165600 18 174 4.8 16.1 0.00 0.00 0.00 47 1013.8
20260508165441 18 179 6.4 16.1 0.00 0.00 0.00 47 1013.8
20260508165340 18 165 1.6 16.1 0.00 0.00 0.00 45 1013.8
20260508165239 18 147 6.4 16.1 0.00 0.00 0.00 46 1013.8
20260508165203 18 120 8.0 16.1 0.00 0.00 0.00 44 1013.8
20260508165039 18 280 9.7 16.1 0.00 0.00 0.00 44 1013.8
20260508164938 18 141 9.7 16.1 0.00 0.00 0.00 46 1013.8
20260508164836 18 193 1.6 14.5 0.00 0.00 0.00 46 1013.8
20260508164738 18 160 1.6 14.5 0.00 0.00 0.00 48 1013.8
20260508164708 18 254 3.2 14.5 0.00 0.00 0.00 44 1013.8
20260508164524 18 192 3.2 14.5 0.00 0.00 0.00 44 1013.8
20260508164424 18 203 8.0 14.5 0.00 0.00 0.00 47 1013.8
20260508164343 18 219 8.0 14.5 0.00 0.00 0.00 47 1013.7
20260508164242 18 230 4.8 12.9 0.00 0.00 0.00 44 1013.7
20260508164139 18 158 6.4 12.9 0.00 0.00 0.00 48 1013.7
20260508164043 18 248 1.6 12.9 0.00 0.00 0.00 48 1013.7
20260508163941 18 299 1.6 12.9 0.00 0.00 0.00 47 1013.7
20260508163859 18 284 1.6 12.9 0.00 0.00 0.00 47 1013.7
20260508163736 18 285 3.2 12.9 0.00 0.00 0.00 47 1013.7
20260508163635 18 282 1.6 12.9 0.00 0.00 0.00 47 1013.7
20260508163533 18 277 8.0 12.9 0.00 0.00 0.00 49 1013.7
20260508163432 18 189 8.0 12.9 0.00 0.00 0.00 49 1013.7
20260508163350 18 205 4.8 12.9 0.00 0.00 0.00 49 1013.7
20260508163233 18 219 4.8 12.9 0.00 0.00 0.00 48 1013.7
20260508163205 18 232 3.2 12.9 0.00 0.00 0.00 48 1013.7
20260508163041 18 147 1.6 16.1 0.00 0.00 0.00 47 1013.7
20260508162939 18 127 1.6 20.9 0.00 0.00 0.00 47 1013.7
20260508162837 18 116 3.2 20.9 0.00 0.00 0.00 47 1014.0
20260508162735 18 178 8.0 20.9 0.00 0.00 0.00 47 1014.0
20260508162634 18 158 9.7 20.9 0.00 0.00 0.00 47 1014.0
20260508162537 18 141 4.8 20.9 0.00 0.00 0.00 47 1014.0
20260508162435 18 219 0.0 20.9 0.00 0.00 0.00 48 1014.0
20260508162333 18 236 6.4 20.9 0.00 0.00 0.00 51 1014.0
20260508162232 18 206 11.3 20.9 0.00 0.00 0.00 52 1014.0
20260508162130 18 217 14.5 20.9 0.00 0.00 0.00 52 1014.0
20260508162030 17 157 8.0 17.7 0.00 0.00 0.00 52 1014.0
20260508161928 17 295 6.4 17.7 0.00 0.00 0.00 53 1014.0
20260508161830 17 234 6.4 17.7 0.00 0.00 0.00 53 1014.0
20260508161749 17 209 6.4 17.7 0.00 0.00 0.00 50 1014.0
20260508161719 17 196 4.8 17.7 0.00 0.00 0.00 50 1014.0
20260508161557 17 92 3.2 17.7 0.00 0.00 0.00 48 1014.0
20260508161434 17 92 9.7 17.7 0.00 0.00 0.00 50 1014.0
20260508161352 17 136 8.0 17.7 0.00 0.00 0.00 50 1014.2
20260508161230 17 154 11.3 17.7 0.00 0.00 0.00 50 1014.2
20260508161128 17 145 6.4 12.9 0.00 0.00 0.00 51 1014.2
20260508161030 17 152 8.0 12.9 0.00 0.00 0.00 52 1014.2
20260508160949 17 219 3.2 12.9 0.00 0.00 0.00 53 1014.2
20260508160827 17 248 8.0 12.9 0.00 0.00 0.00 53 1014.2
20260508160746 17 184 3.2 12.9 0.00 0.00 0.00 52 1014.2
20260508160703 17 251 1.6 12.9 0.00 0.00 0.00 51 1014.2
20260508160540 17 127 4.8 12.9 0.00 0.00 0.00 51 1014.2
20260508160439 17 258 8.0 12.9 0.00 0.00 0.00 50 1014.2
20260508160337 17 230 3.2 12.9 0.00 0.00 0.00 49 1014.2
20260508160240 17 216 1.6 16.1 0.00 0.00 0.00 50 1014.2
20260508160210 17 189 4.8 16.1 0.00 0.00 0.00 51 1014.2
20260508160027 17 157 6.4 16.1 0.00 0.00 0.00 53 1014.2
20260508155924 17 254 3.2 19.3 0.00 0.00 0.00 51 1014.2
20260508155846 17 168 1.6 19.3 0.00 0.00 0.00 50 1013.4
20260508155803 17 136 4.8 19.3 0.00 0.00 0.00 54 1013.4
20260508155702 17 119 6.4 19.3 0.00 0.00 0.00 51 1013.4
20260508155537 17 176 6.4 19.3 0.00 0.00 0.00 53 1013.4
20260508155456 17 195 6.4 19.3 0.00 0.00 0.00 54 1013.4
20260508155335 17 205 8.0 19.3 0.00 0.00 0.00 53 1013.4
20260508155237 17 96 11.3 19.3 0.00 0.00 0.00 53 1013.4
20260508155136 17 148 16.1 19.3 0.00 0.00 0.00 50 1013.4
20260508155055 17 186 11.3 17.7 0.00 0.00 0.00 53 1013.4
20260508154932 17 176 8.0 17.7 0.00 0.00 0.00 53 1013.4
20260508154829 17 223 11.3 17.7 0.00 0.00 0.00 51 1013.4
20260508154727 17 179 8.0 12.9 0.00 0.00 0.00 53 1013.4
20260508154657 17 264 6.4 12.9 0.00 0.00 0.00 53 1013.4
20260508154558 17 150 6.4 12.9 0.00 0.00 0.00 52 1013.4
20260508154422 16 160 8.0 12.9 0.00 0.00 0.00 50 1013.4
20260508154324 16 127 1.6 14.5 0.00 0.00 0.00 48 1013.5
20260508154242 16 123 0.0 14.5 0.00 0.00 0.00 48 1013.5
20260508154140 16 123 6.4 19.3 0.00 0.00 0.00 50 1013.5
20260508154040 16 199 6.4 19.3 0.00 0.00 0.00 51 1013.5
20260508154000 16 227 4.8 19.3 0.00 0.00 0.00 51 1013.5
20260508153858 16 210 3.2 19.3 0.00 0.00 0.00 48 1013.5
20260508153737 16 213 4.8 19.3 0.00 0.00 0.00 49 1013.5
20260508153637 16 206 4.8 19.3 0.00 0.00 0.00 49 1013.5
20260508153535 16 227 9.7 19.3 0.00 0.00 0.00 47 1013.5
20260508153433 16 256 8.0 19.3 0.00 0.00 0.00 47 1013.5
20260508153350 16 278 12.9 19.3 0.00 0.00 0.00 46 1013.5
20260508153229 16 165 11.3 17.7 0.00 0.00 0.00 52 1013.5
20260508153159 16 148 6.4 17.7 0.00 0.00 0.00 52 1013.5
20260508153040 16 220 6.4 17.7 0.00 0.00 0.00 50 1013.5
20260508152938 16 116 9.7 17.7 0.00 0.00 0.00 51 1013.5
20260508152840 16 138 9.7 17.7 0.00 0.00 0.00 52 1013.6
20260508152740 16 181 8.0 17.7 0.00 0.00 0.00 53 1013.6
20260508152638 16 154 11.3 19.3 0.00 0.00 0.00 54 1013.6
20260508152536 16 130 9.7 19.3 0.00 0.00 0.00 53 1013.6
20260508152434 16 144 8.0 19.3 0.00 0.00 0.00 53 1013.6
20260508152332 16 172 6.4 19.3 0.00 0.00 0.00 53 1013.6
20260508152250 16 100 6.4 19.3 0.00 0.00 0.00 54 1013.6
20260508152131 16 223 11.3 19.3 0.00 0.00 0.00 53 1013.6
20260508152028 16 182 8.0 19.3 0.00 0.00 0.00 53 1013.6
20260508151927 16 96 0.0 19.3 0.00 0.00 0.00 53 1013.6
20260508151829 16 96 9.7 19.3 0.00 0.00 0.00 54 1013.6
20260508151726 16 113 9.7 16.1 0.00 0.00 0.00 52 1013.6
20260508151657 16 167 9.7 16.1 0.00 0.00 0.00 52 1013.6
20260508151538 16 121 11.3 19.3 0.00 0.00 0.00 50 1013.6
20260508151441 15 124 8.0 19.3 0.00 0.00 0.00 50 1013.6
20260508151339 15 112 1.6 19.3 0.00 0.00 0.00 50 1013.9
20260508151238 15 193 3.2 19.3 0.00 0.00 0.00 52 1013.9
20260508151137 15 158 3.2 19.3 0.00 0.00 0.00 53 1013.9
20260508151037 15 138 6.4 19.3 0.00 0.00 0.00 52 1013.9
20260508150935 15 205 8.0 19.3 0.00 0.00 0.00 54 1013.9
20260508150838 15 264 9.7 19.3 0.00 0.00 0.00 53 1013.9
20260508150736 15 103 9.7 19.3 0.00 0.00 0.00 53 1013.9
20260508150634 15 178 12.9 19.3 0.00 0.00 0.00 52 1013.9
20260508150532 15 131 4.8 19.3 0.00 0.00 0.00 52 1013.9
20260508150430 15 179 3.2 19.3 0.00 0.00 0.00 53 1013.9
20260508150328 15 226 3.2 19.3 0.00 0.00 0.00 53 1013.9
20260508150237 15 172 6.4 19.3 0.00 0.00 0.00 52 1013.9
20260508150148 15 167 4.8 19.3 0.00 0.00 0.00 54 1013.9
20260508150029 15 172 4.8 19.3 0.00 0.00 0.00 54 1013.9
20260508145948 15 143 3.2 19.3 0.00 0.00 0.00 54 1013.9
20260508145825 15 200 9.7 19.3 0.00 0.00 0.00 53 1013.9
20260508145744 15 210 3.2 19.3 0.00 0.00 0.00 53 1013.9
20260508145703 15 147 4.8 19.3 0.00 0.00 0.00 55 1013.9
20260508145539 15 121 11.3 19.3 0.00 0.00 0.00 54 1013.9
20260508145439 15 208 11.3 19.3 0.00 0.00 0.00 53 1013.9
20260508145356 15 270 12.9 19.3 0.00 0.00 0.00 55 1013.9
20260508145238 15 117 14.5 19.3 0.00 0.00 0.00 54 1013.9
20260508145137 15 203 4.8 17.7 0.00 0.00 0.00 53 1013.9
20260508145035 15 185 4.8 17.7 0.00 0.00 0.00 53 1013.9
20260508144934 15 162 8.0 17.7 0.00 0.00 0.00 54 1013.9
20260508144833 15 155 1.6 17.7 0.00 0.00 0.00 52 1013.9
20260508144743 15 148 4.8 17.7 0.00 0.00 0.00 52 1013.9
20260508144652 15 138 1.6 17.7 0.00 0.00 0.00 53 1013.9
20260508144531 15 169 6.4 17.7 0.00 0.00 0.00 53 1013.9
20260508144430 15 130 11.3 17.7 0.00 0.00 0.00 55 1013.9
20260508144348 15 138 14.5 17.7 0.00 0.00 0.00 54 1014.1
20260508144246 15 123 12.9 16.1 0.00 0.00 0.00 53 1014.1
20260508144204 15 220 9.7 16.1 0.00 0.00 0.00 56 1014.1
20260508144040 15 165 6.4 12.9 0.00 0.00 0.00 56 1014.1
20260508143938 15 169 6.4 14.5 0.00 0.00 0.00 55 1014.1
20260508143859 14 114 3.2 14.5 0.00 0.00 0.00 56 1014.1
20260508143736 14 143 4.8 14.5 0.00 0.00 0.00 55 1014.1
20260508143638 14 203 8.0 14.5 0.00 0.00 0.00 57 1014.1
20260508143536 14 155 4.8 14.5 0.00 0.00 0.00 57 1014.1
20260508143434 14 226 3.2 14.5 0.00 0.00 0.00 57 1014.1
20260508143332 14 151 1.6 14.5 0.00 0.00 0.00 57 1014.1
20260508143242 14 158 8.0 14.5 0.00 0.00 0.00 56 1014.1
20260508143153 14 304 9.7 16.1 0.00 0.00 0.00 57 1014.1
20260508143029 14 161 1.6 16.1 0.00 0.00 0.00 57 1014.1
20260508142931 14 206 8.0 16.1 0.00 0.00 0.00 55 1014.1
20260508142831 14 160 0.0 16.1 0.00 0.00 0.00 54 1014.2
20260508142730 14 208 3.2 16.1 0.00 0.00 0.00 54 1014.2
20260508142652 14 306 3.2 16.1 0.00 0.00 0.00 56 1014.2
20260508142530 14 117 4.8 16.1 0.00 0.00 0.00 56 1014.2
20260508142427 14 155 6.4 16.1 0.00 0.00 0.00 56 1014.2
20260508142323 14 275 11.3 16.1 0.00 0.00 0.00 53 1014.2
20260508142242 14 131 6.4 12.9 0.00 0.00 0.00 53 1014.2
20260508142202 14 261 3.2 12.9 0.00 0.00 0.00 55 1014.2
20260508142039 13 93 0.0 14.5 0.00 0.00 0.00 55 1014.2
20260508141937 13 174 1.6 14.5 0.00 0.00 0.00 56 1014.2
20260508141856 13 256 1.6 14.5 0.00 0.00 0.00 55 1014.2
20260508141733 13 251 6.4 14.5 0.00 0.00 0.00 55 1014.2
20260508141703 13 203 8.0 14.5 0.00 0.00 0.00 55 1014.2
20260508141600 13 222 4.8 17.7 0.00 0.00 0.00 53 1014.2
20260508141438 13 172 4.8 19.3 0.00 0.00 0.00 52 1014.2
20260508141340 13 233 9.7 19.3 0.00 0.00 0.00 53 1014.1
20260508141239 13 312 8.0 19.3 0.00 0.00 0.00 54 1014.1
20260508141138 13 186 6.4 19.3 0.00 0.00 0.00 52 1014.1
20260508141036 13 258 6.4 19.3 0.00 0.00 0.00 52 1014.1
20260508140934 13 192 9.7 19.3 0.00 0.00 0.00 52 1014.1
20260508140853 13 112 11.3 19.3 0.00 0.00 0.00 53 1014.1
20260508140751 13 110 11.3 19.3 0.00 0.00 0.00 54 1014.1
20260508140628 13 311 14.5 19.3 0.00 0.00 0.00 54 1014.1
20260508140532 13 326 9.7 17.7 0.00 0.00 0.00 55 1014.1
20260508140430 13 160 9.7 19.3 0.00 0.00 0.00 57 1014.1
20260508140327 13 326 6.4 19.3 0.00 0.00 0.00 57 1014.1
20260508140258 13 261 9.7 19.3 0.00 0.00 0.00 56 1014.1
20260508140147 13 275 6.4 19.3 0.00 0.00 0.00 55 1014.1
20260508140043 13 145 4.8 19.3 0.00 0.00 0.00 56 1014.1
20260508140002 13 251 6.4 19.3 0.00 0.00 0.00 58 1014.1
20260508135839 13 289 9.7 19.3 0.00 0.00 0.00 57 1014.1
20260508135741 13 265 11.3 19.3 0.00 0.00 0.00 57 1014.1
20260508135640 13 174 14.5 19.3 0.00 0.00 0.00 57 1014.1
20260508135559 13 239 11.3 19.3 0.00 0.00 0.00 58 1014.1
20260508135436 13 237 6.4 19.3 0.00 0.00 0.00 58 1014.1
20260508135334 13 145 9.7 19.3 0.00 0.00 0.00 58 1014.1
20260508135232 13 155 8.0 19.3 0.00 0.00 0.00 55 1014.1
20260508135150 13 90 11.3 19.3 0.00 0.00 0.00 56 1014.1
20260508135028 13 193 9.7 19.3 0.00 0.00 0.00 57 1014.1
20260508134929 13 268 14.5 20.9 0.00 0.00 0.00 56 1014.1
20260508134828 13 328 14.5 20.9 0.00 0.00 0.00 56 1014.1
20260508134728 13 274 14.5 20.9 0.00 0.00 0.00 58 1014.1
20260508134658 13 315 9.7 20.9 0.00 0.00 0.00 58 1014.1
20260508134539 13 152 11.3 20.9 0.00 0.00 0.00 58 1014.1
20260508134437 13 295 14.5 20.9 0.00 0.00 0.00 57 1014.1
20260508134336 13 185 9.7 20.9 0.00 0.00 0.00 56 1014.3
20260508134237 13 330 12.9 20.9 0.00 0.00 0.00 57 1014.3
20260508134135 13 162 16.1 20.9 0.00 0.00 0.00 57 1014.3
20260508134035 13 171 12.9 20.9 0.00 0.00 0.00 56 1014.3
20260508133933 13 253 12.9 20.9 0.00 0.00 0.00 55 1014.3
20260508133831 13 198 17.7 20.9 0.00 0.00 0.00 55 1014.3
20260508133730 12 95 17.7 20.9 0.00 0.00 0.00 57 1014.3
20260508133633 12 195 12.9 20.9 0.00 0.00 0.00 57 1014.3
20260508133532 12 116 12.9 20.9 0.00 0.00 0.00 58 1014.3
20260508133431 12 171 9.7 17.7 0.00 0.00 0.00 57 1014.3
20260508133329 12 261 16.1 17.7 0.00 0.00 0.00 56 1014.3
20260508133247 12 188 8.0 17.7 0.00 0.00 0.00 56 1014.3
20260508133219 12 285 6.4 19.3 0.00 0.00 0.00 55 1014.3
20260508133054 12 174 12.9 19.3 0.00 0.00 0.00 58 1014.3
20260508132932 12 126 11.3 19.3 0.00 0.00 0.00 58 1014.3
20260508132835 12 229 12.9 19.3 0.00 0.00 0.00 57 1014.1
20260508132733 12 137 12.9 19.3 0.00 0.00 0.00 61 1014.1
20260508132631 12 157 9.7 19.3 0.00 0.00 0.00 60 1014.1
20260508132549 12 280 4.8 19.3 0.00 0.00 0.00 60 1014.1
20260508132429 12 322 8.0 19.3 0.00 0.00 0.00 60 1014.1
20260508132328 12 112 12.9 19.3 0.00 0.00 0.00 61 1014.1
20260508132227 12 284 8.0 16.1 0.00 0.00 0.00 64 1014.1
20260508132125 12 230 6.4 16.1 0.00 0.00 0.00 64 1014.1
20260508132027 12 287 11.3 14.5 0.00 0.00 0.00 63 1014.1
20260508131926 12 250 4.8 12.9 0.00 0.00 0.00 62 1014.1
20260508131843 12 230 4.8 12.9 0.00 0.00 0.00 63 1014.1
20260508131742 12 192 6.4 16.1 0.00 0.00 0.00 64 1014.1
20260508131712 12 215 8.0 16.1 0.00 0.00 0.00 64 1014.1
20260508131528 12 246 6.4 16.1 0.00 0.00 0.00 62 1014.1
20260508131427 12 299 8.0 16.1 0.00 0.00 0.00 62 1014.1
20260508131325 12 175 11.3 16.1 0.00 0.00 0.00 63 1013.9
20260508131229 12 267 8.0 16.1 0.00 0.00 0.00 63 1013.9
20260508131128 12 244 9.7 16.1 0.00 0.00 0.00 64 1013.9
20260508131027 12 316 9.7 16.1 0.00 0.00 0.00 64 1013.9
20260508130927 12 191 12.9 16.1 0.00 0.00 0.00 64 1013.9
20260508130847 12 257 11.3 16.1 0.00 0.00 0.00 64 1013.9
20260508130744 12 196 11.3 14.5 0.00 0.00 0.00 64 1013.9
20260508130640 12 123 11.3 14.5 0.00 0.00 0.00 66 1013.9
20260508130539 12 292 9.7 14.5 0.00 0.00 0.00 66 1013.9
20260508130501 12 292 9.7 14.5 0.00 0.00 0.00 66 1013.9
20260508130338 12 292 9.7 14.5 0.00 0.00 0.00 66 1013.9
20260508130257 12 305 9.7 14.5 0.00 0.00 0.00 66 1013.9
20260508130205 12 124 9.7 14.5 0.00 0.00 0.00 66 1013.9
20260508130042 12 320 11.3 16.1 0.00 0.00 0.00 67 1013.9
20260508125940 12 329 8.0 16.1 0.00 0.00 0.00 67 1013.9
20260508125839 12 295 9.7 16.1 0.00 0.00 0.00 66 1013.8
20260508125757 12 141 9.7 17.7 0.00 0.00 0.00 66 1013.8
20260508125640 12 330 9.7 17.7 0.00 0.00 0.00 66 1013.8
20260508125539 12 326 9.7 17.7 0.00 0.00 0.00 65 1013.8
20260508125458 12 323 9.7 17.7 0.00 0.00 0.00 65 1013.8
20260508125335 12 284 9.7 19.3 0.00 0.00 0.00 65 1013.8
20260508125233 12 304 11.3 19.3 0.00 0.00 0.00 64 1013.8
20260508125132 11 291 12.9 19.3 0.00 0.00 0.00 64 1013.8
20260508125050 11 268 9.7 19.3 0.00 0.00 0.00 64 1013.8
20260508124928 11 151 11.3 19.3 0.00 0.00 0.00 65 1013.8
20260508124830 11 116 9.7 19.3 0.00 0.00 0.00 66 1013.8
20260508124740 11 144 14.5 19.3 0.00 0.00 0.00 66 1013.8
20260508124648 11 133 14.5 19.3 0.00 0.00 0.00 67 1013.8
20260508124525 11 253 12.9 19.3 0.00 0.00 0.00 68 1013.8
20260508124424 11 188 11.3 19.3 0.00 0.00 0.00 68 1013.8
20260508124342 11 114 8.0 19.3 0.00 0.00 0.00 68 1013.9
20260508124242 11 219 11.3 19.3 0.00 0.00 0.00 68 1013.9
20260508124124 11 185 9.7 19.3 0.00 0.00 0.00 69 1013.9
20260508124043 11 168 12.9 19.3 0.00 0.00 0.00 69 1013.9
20260508124002 11 294 14.5 19.3 0.00 0.00 0.00 69 1013.9
20260508123841 11 257 11.3 17.7 0.00 0.00 0.00 69 1013.9
20260508123740 11 189 11.3 14.5 0.00 0.00 0.00 69 1013.9
20260508123638 11 326 9.7 14.5 0.00 0.00 0.00 69 1013.9
20260508123557 11 222 6.4 14.5 0.00 0.00 0.00 69 1013.9
20260508123433 11 312 11.3 14.5 0.00 0.00 0.00 69 1013.9
20260508123336 11 271 9.7 14.5 0.00 0.00 0.00 69 1013.9
20260508123235 11 332 11.3 14.5 0.00 0.00 0.00 69 1013.9
20260508123205 11 174 9.7 14.5 0.00 0.00 0.00 69 1013.9
20260508123042 11 176 9.7 16.1 0.00 0.00 0.00 69 1013.9
20260508122940 11 329 9.7 16.1 0.00 0.00 0.00 69 1013.9
20260508122837 11 332 9.7 16.1 0.00 0.00 0.00 69 1014.1
20260508122737 11 230 9.7 16.1 0.00 0.00 0.00 69 1014.1
20260508122640 11 291 9.7 16.1 0.00 0.00 0.00 69 1014.1
20260508122537 11 312 9.7 16.1 0.00 0.00 0.00 69 1014.1
20260508122455 11 272 11.3 16.1 0.00 0.00 0.00 69 1014.1
20260508122332 11 313 8.0 16.1 0.00 0.00 0.00 70 1014.1
20260508122231 11 260 8.0 17.7 0.00 0.00 0.00 70 1014.1
20260508122129 11 302 6.4 17.7 0.00 0.00 0.00 70 1014.1
20260508122028 11 261 12.9 17.7 0.00 0.00 0.00 70 1014.1
20260508121930 10 157 11.3 17.7 0.00 0.00 0.00 71 1014.1
20260508121848 10 246 9.7 17.7 0.00 0.00 0.00 71 1014.1
20260508121726 10 332 11.3 17.7 0.00 0.00 0.00 71 1014.1
20260508121656 10 275 9.7 17.7 0.00 0.00 0.00 71 1014.1
20260508121533 10 332 8.0 17.7 0.00 0.00 0.00 70 1014.1
20260508121431 10 329 9.7 17.7 0.00 0.00 0.00 71 1014.1
20260508121328 10 160 11.3 17.7 0.00 0.00 0.00 71 1013.9
20260508121248 10 112 11.3 16.1 0.00 0.00 0.00 71 1013.9
20260508121129 10 264 8.0 16.1 0.00 0.00 0.00 71 1013.9
20260508121032 10 289 11.3 16.1 0.00 0.00 0.00 70 1013.9
20260508120929 10 264 11.3 16.1 0.00 0.00 0.00 71 1013.9
20260508120830 10 316 11.3 16.1 0.00 0.00 0.00 70 1013.9
20260508120748 10 326 9.7 14.5 0.00 0.00 0.00 71 1013.9
20260508120626 10 131 11.3 14.5 0.00 0.00 0.00 71 1013.9
20260508120529 10 326 11.3 14.5 0.00 0.00 0.00 71 1013.9
20260508120427 10 333 8.0 12.9 0.00 0.00 0.00 71 1013.9
20260508120329 10 181 9.7 12.9 0.00 0.00 0.00 71 1013.9
20260508120227 10 200 11.3 14.5 0.00 0.00 0.00 71 1013.9
20260508120158 10 130 9.7 14.5 0.00 0.00 0.00 71 1013.9
20260508120034 10 145 8.0 14.5 0.00 0.00 0.00 71 1013.9
20260508115933 10 260 11.3 16.1 0.00 0.00 0.00 71 1013.9
20260508115831 10 128 11.3 16.1 0.00 0.00 0.00 72 1013.7
20260508115729 10 274 9.7 16.1 0.00 0.00 0.00 72 1013.7
20260508115652 10 227 9.7 16.1 0.00 0.00 0.00 72 1013.7
20260508115530 10 222 9.7 16.1 0.00 0.00 0.00 72 1013.7
20260508115428 10 233 11.3 16.1 0.00 0.00 0.00 72 1013.7
20260508115327 10 330 9.7 16.1 0.00 0.00 0.00 72 1013.7
20260508115225 10 322 9.7 16.1 0.00 0.00 0.00 72 1013.7
20260508115143 10 301 11.3 16.1 0.00 0.00 0.00 72 1013.7
20260508115042 10 322 11.3 16.1 0.00 0.00 0.00 72 1013.7
20260508114924 10 107 9.7 12.9 0.00 0.00 0.00 72 1013.7
20260508114846 10 332 9.7 12.9 0.00 0.00 0.00 72 1013.7
20260508114742 10 123 9.7 12.9 0.00 0.00 0.00 72 1013.7
20260508114713 10 332 9.7 12.9 0.00 0.00 0.00 71 1013.7
20260508114530 10 330 9.7 12.9 0.00 0.00 0.00 72 1013.7
20260508114430 10 258 11.3 12.9 0.00 0.00 0.00 72 1013.7
20260508114327 10 138 11.3 12.9 0.00 0.00 0.00 72 1013.6
20260508114227 10 329 9.7 16.1 0.00 0.00 0.00 71 1013.6
20260508114128 10 332 11.3 16.1 0.00 0.00 0.00 71 1013.6
20260508114027 10 264 9.7 16.1 0.00 0.00 0.00 71 1013.6
20260508113924 10 278 8.0 16.1 0.00 0.00 0.00 71 1013.6
20260508113843 10 265 8.0 16.1 0.00 0.00 0.00 71 1013.6
20260508113741 10 178 9.7 16.1 0.00 0.00 0.00 71 1013.6
20260508113700 10 332 8.0 16.1 0.00 0.00 0.00 70 1013.6
20260508113537 10 277 8.0 16.1 0.00 0.00 0.00 70 1013.6
20260508113439 10 292 9.7 16.1 0.00 0.00 0.00 70 1013.6
20260508113340 10 272 11.3 16.1 0.00 0.00 0.00 70 1013.6
20260508113237 10 169 11.3 16.1 0.00 0.00 0.00 70 1013.6
20260508113207 10 128 9.7 16.1 0.00 0.00 0.00 70 1013.6
20260508113043 10 258 11.3 16.1 0.00 0.00 0.00 70 1013.6
20260508112941 10 243 9.7 14.5 0.00 0.00 0.00 71 1013.6
20260508112840 10 154 11.3 12.9 0.00 0.00 0.00 71 1013.3
20260508112800 10 248 9.7 12.9 0.00 0.00 0.00 70 1013.3
20260508112656 10 203 11.3 12.9 0.00 0.00 0.00 70 1013.3
20260508112559 10 241 11.3 12.9 0.00 0.00 0.00 70 1013.3
20260508112434 10 100 9.7 14.5 0.00 0.00 0.00 70 1013.3
20260508112336 10 298 11.3 14.5 0.00 0.00 0.00 70 1013.3
20260508112236 10 328 9.7 14.5 0.00 0.00 0.00 70 1013.3
20260508112134 10 275 9.7 14.5 0.00 0.00 0.00 70 1013.3
20260508112033 10 224 11.3 16.1 0.00 0.00 0.00 70 1013.3
20260508111930 10 160 9.7 16.1 0.00 0.00 0.00 70 1013.3
20260508111828 10 199 9.7 16.1 0.00 0.00 0.00 70 1013.3
20260508111740 10 195 11.3 16.1 0.00 0.00 0.00 70 1013.3
20260508111650 10 251 11.3 16.1 0.00 0.00 0.00 70 1013.3
20260508111528 10 144 9.7 16.1 0.00 0.00 0.00 70 1013.3
20260508111425 10 323 9.7 16.1 0.00 0.00 0.00 69 1013.3
20260508111324 10 268 9.7 16.1 0.00 0.00 0.00 70 1012.8
20260508111243 10 270 11.3 16.1 0.00 0.00 0.00 70 1012.8
20260508111142 10 267 11.3 16.1 0.00 0.00 0.00 69 1012.8
20260508111101 10 215 9.7 16.1 0.00 0.00 0.00 69 1012.8
20260508111001 10 330 11.3 16.1 0.00 0.00 0.00 69 1012.8
20260508110839 10 325 9.7 16.1 0.00 0.00 0.00 69 1012.8
20260508110738 10 298 9.7 16.1 0.00 0.00 0.00 69 1012.8
20260508110635 10 284 11.3 16.1 0.00 0.00 0.00 69 1012.8
20260508110534 10 202 11.3 16.1 0.00 0.00 0.00 69 1012.8
20260508110432 10 136 11.3 16.1 0.00 0.00 0.00 69 1012.8
20260508110330 10 332 9.7 16.1 0.00 0.00 0.00 69 1012.8
20260508110252 10 277 9.7 16.1 0.00 0.00 0.00 69 1012.8
20260508110202 10 136 9.7 16.1 0.00 0.00 0.00 69 1012.8
20260508110039 10 251 9.7 16.1 0.00 0.00 0.00 69 1012.8
20260508105957 10 179 11.3 16.1 0.00 0.00 0.00 69 1012.8
20260508105834 10 280 9.7 16.1 0.00 0.00 0.00 69 1012.6
20260508105734 10 265 11.3 16.1 0.00 0.00 0.00 69 1012.6
20260508105635 10 316 9.7 16.1 0.00 0.00 0.00 69 1012.6
20260508105533 10 263 11.3 16.1 0.00 0.00 0.00 69 1012.6
20260508105436 10 323 11.3 16.1 0.00 0.00 0.00 69 1012.6
20260508105334 10 296 12.9 16.1 0.00 0.00 0.00 69 1012.6
20260508105252 10 213 11.3 16.1 0.00 0.00 0.00 69 1012.6
20260508105130 10 130 11.3 16.1 0.00 0.00 0.00 69 1012.6
20260508105049 10 164 9.7 17.7 0.00 0.00 0.00 69 1012.6
20260508104926 10 330 11.3 17.7 0.00 0.00 0.00 69 1012.6
20260508104823 10 145 9.7 17.7 0.00 0.00 0.00 69 1012.6
20260508104738 10 302 12.9 17.7 0.00 0.00 0.00 69 1012.6
20260508104645 10 232 12.9 17.7 0.00 0.00 0.00 68 1012.6
20260508104544 10 306 11.3 17.7 0.00 0.00 0.00 68 1012.6
20260508104442 10 196 12.9 17.7 0.00 0.00 0.00 68 1012.6
20260508104341 10 254 12.9 17.7 0.00 0.00 0.00 69 1012.4
20260508104239 10 157 12.9 17.7 0.00 0.00 0.00 68 1012.4
20260508104137 10 176 11.3 16.1 0.00 0.00 0.00 68 1012.4
20260508104037 10 131 9.7 16.1 0.00 0.00 0.00 68 1012.4
20260508103940 10 332 9.7 16.1 0.00 0.00 0.00 68 1012.4
20260508103838 10 209 11.3 16.1 0.00 0.00 0.00 68 1012.4
20260508103737 10 328 9.7 16.1 0.00 0.00 0.00 68 1012.4
20260508103634 10 208 8.0 16.1 0.00 0.00 0.00 68 1012.4
20260508103553 10 230 9.7 16.1 0.00 0.00 0.00 67 1012.4
20260508103431 10 227 11.3 16.1 0.00 0.00 0.00 67 1012.4
20260508103330 10 143 11.3 16.1 0.00 0.00 0.00 67 1012.4
20260508103240 10 162 12.9 19.3 0.00 0.00 0.00 67 1012.4
20260508103154 10 305 11.3 19.3 0.00 0.00 0.00 67 1012.4
20260508103030 10 308 11.3 19.3 0.00 0.00 0.00 67 1012.4
20260508102929 10 260 9.7 19.3 0.00 0.00 0.00 67 1012.4
20260508102827 10 186 11.3 19.3 0.00 0.00 0.00 67 1012.3
20260508102745 10 203 11.3 19.3 0.00 0.00 0.00 67 1012.3
20260508102642 10 208 9.7 19.3 0.00 0.00 0.00 66 1012.3
20260508102540 10 93 9.7 19.3 0.00 0.00 0.00 67 1012.3
20260508102438 10 319 12.9 19.3 0.00 0.00 0.00 66 1012.3
20260508102339 10 315 14.5 19.3 0.00 0.00 0.00 66 1012.3
20260508102239 10 209 12.9 20.9 0.00 0.00 0.00 66 1012.3
20260508102138 10 258 9.7 22.5 0.00 0.00 0.00 66 1012.3
20260508102036 11 199 11.3 22.5 0.00 0.00 0.00 66 1012.3
20260508101934 11 172 8.0 22.5 0.00 0.00 0.00 65 1012.3
20260508101832 11 154 11.3 22.5 0.00 0.00 0.00 65 1012.3
20260508101803 11 281 14.5 22.5 0.00 0.00 0.00 66 1012.3
20260508101649 11 195 16.1 22.5 0.00 0.00 0.00 65 1012.3
20260508101531 11 195 9.7 22.5 0.00 0.00 0.00 65 1012.3
20260508101429 11 145 14.5 22.5 0.00 0.00 0.00 64 1012.3
20260508101347 11 219 16.1 22.5 0.00 0.00 0.00 66 1012.2
20260508101226 11 154 12.9 19.3 0.00 0.00 0.00 67 1012.2
20260508101125 11 107 9.7 19.3 0.00 0.00 0.00 67 1012.2
20260508101043 11 172 11.3 19.3 0.00 0.00 0.00 66 1012.2
20260508100941 11 138 11.3 17.7 0.00 0.00 0.00 66 1012.2